GEFSSGP_con_cape1000_144.txt.gz
Probability
0 0 0 0 0 0 0 0 3 3 6 13 19 19 26 45 48 77 81 65 68 71 77 90 100 100 100 100 100 100 100 100 100 100 100 100 100 100 100 100 100 100 100 100 100 100 97 100 100
0 0 0 0 0 0 0 0 3 13 19 32 45 52 58 77 81 81 81 71 74 84 84 77 100 100 100 100 100 100 100 100 100 100 100 100 100 100 100 100 100 100 100 100 100 100 100 100 100
0 0 0 0 0 0 0 3 6 19 26 29 58 65 74 87 84 84 84 74 81 90 94 97 97 100 100 100 100 100 100 100 100 100 100 100 100 100 100 100 100 100 100 100 100 100 100 100 100
0 0 0 0 0 0 3 6 13 16 32 42 58 81 87 84 87 87 84 84 90 90 90 90 97 97 97 100 100 100 100 100 100 100 100 100 100 100 100 100 100 100 100 100 100 100 100 100 100
0 0 0 0 0 3 3 3 6 23 29 39 42 74 90 87 87 84 87 90 90 84 87 90 97 97 97 97 100 100 100 100 100 97 97 97 97 97 97 100 100 97 97 97 97 97 97 100 100
0 0 0 0 3 3 3 3 10 13 26 35 42 71 84 87 84 84 87 84 81 90 87 94 94 94 90 94 94 94 94 97 97 97 97 97 97 97 97 100 100 100 97 94 100 100 97 97 97
0 0 0 0 3 3 3 6 10 23 35 39 42 68 87 84 84 77 77 77 74 84 87 87 90 90 90 87 84 84 84 87 90 90 97 94 97 94 94 97 97 100 100 100 97 100 100 97 94
0 0 0 3 3 3 3 16 16 29 39 48 52 68 84 84 81 77 77 71 71 74 74 81 87 87 87 84 84 84 84 84 84 84 84 87 90 90 94 94 97 97 97 100 97 90 97 94 90
0 0 0 3 3 3 3 10 26 35 48 55 61 74 84 81 77 74 74 74 77 71 71 74 74 81 81 81 81 81 81 81 84 84 84 84 90 81 84 90 84 90 97 97 100 97 97 97 97
0 0 0 0 3 3 3 13 26 42 52 58 74 81 74 74 77 71 71 68 68 68 65 68 71 77 77 74 81 84 81 81 87 81 81 81 87 87 68 81 87 84 87 87 94 87 77 74 74
0 0 0 3 3 3 3 23 42 42 48 55 68 68 71 71 71 74 71 61 65 61 61 61 65 71 71 71 74 74 77 71 74 74 84 84 87 87 81 90 87 97 81 90 90 77 65 55 48
0 0 0 3 3 3 13 26 39 48 45 58 61 68 71 71 65 71 58 52 52 52 52 55 61 65 68 71 71 68 65 65 68 71 71 77 81 77 81 84 77 77 81 87 71 77 74 68 52
0 3 3 3 3 3 16 26 45 42 45 52 52 65 65 61 55 55 52 48 52 48 45 42 45 48 58 55 58 61 65 58 71 71 68 68 65 65 71 74 74 68 65 74 71 52 71 71 58
0 3 3 6 10 19 26 23 42 35 45 55 52 61 61 58 61 52 55 55 45 45 42 42 42 42 42 45 52 58 55 55 52 55 55 55 55 61 58 55 58 42 52 48 61 52 77 65 71
3 3 3 6 10 16 16 23 29 42 45 52 58 61 48 48 52 42 35 42 29 29 35 35 39 42 42 42 39 39 45 42 42 42 45 48 48 48 48 45 42 42 52 55 55 52 65 61 61
3 3 3 3 6 16 6 16 35 45 45 48 52 35 45 45 45 35 29 35 32 29 35 32 32 35 35 32 42 39 39 42 35 35 42 35 29 39 48 48 39 42 39 45 45 45 48 48 45
3 0 3 3 3 10 6 13 48 45 45 48 48 48 42 39 32 23 23 19 26 29 26 26 32 35 35 39 42 35 39 35 29 29 26 26 26 26 35 39 42 35 39 39 32 35 35 29 32
0 0 0 0 6 10 13 23 48 45 45 48 42 45 39 35 29 23 23 19 19 23 23 23 26 23 29 35 35 39 35 32 26 26 26 26 26 29 29 29 29 23 23 26 29 32 35 35 32
0 0 0 0 6 10 19 29 42 48 48 52 42 42 39 39 23 23 19 19 19 16 16 16 16 23 29 35 39 35 32 23 23 23 23 23 23 26 29 26 26 23 23 26 26 29 29 29 29
0 0 3 6 10 10 23 29 55 45 52 48 42 42 42 29 23 19 19 16 16 16 16 13 13 16 16 19 26 26 19 16 16 16 19 19 16 26 10 26 19 23 23 26 23 23 26 26 26
0 0 3 10 6 13 19 35 55 55 55 52 45 42 39 26 23 23 16 13 13 13 13 13 16 16 16 16 19 19 19 16 16 19 19 19 16 13 19 16 13 13 16 13 13 19 19 19 23
0 0 6 6 3 6 10 6 45 58 52 58 58 52 35 29 23 23 23 19 16 13 13 13 16 16 16 13 13 16 16 13 13 16 13 10 6 10 10 10 10 13 13 10 6 10 10 13 16
0 0 6 3 3 6 10 3 10 55 58 55 61 52 45 29 19 19 19 16 13 13 13 16 16 16 16 13 16 13 10 10 10 13 13 6 6 10 6 6 6 13 13 13 6 10 6 10 6
0 0 0 3 0 0 0 0 10 32 39 45 52 48 42 32 19 19 16 16 13 16 16 16 13 13 13 13 13 13 13 13 6 10 6 3 3 3 3 6 6 6 6 6 10 10 6 6 6
0 0 0 0 0 0 0 0 3 16 16 29 52 39 39 35 19 16 16 16 16 16 16 16 13 10 10 10 10 10 13 10 6 3 3 3 3 3 3 3 0 6 6 6 3 3 3 3 3
0 0 0 0 0 0 0 0 13 23 19 26 39 32 32 35 23 23 16 16 16 16 13 13 13 6 6 6 10 10 10 6 3 3 0 0 0 0 0 0 0 0 0 0 3 3 3 3 3
0 0 0 0 0 0 0 0 19 23 23 19 19 16 29 29 19 23 19 19 16 13 13 13 0 3 3 10 10 6 6 6 3 0 0 0 0 0 0 0 0 0 0 0 0 3 3 3 3
0 0 0 0 0 0 0 0 3 26 23 19 10 10 26 23 19 23 19 16 16 10 6 3 6 6 6 6 0 0 3 3 0 0 0 0 0 0 0 0 0 0 0 0 0 0 3 3 3
0 0 0 0 0 0 0 0 6 26 26 16 6 13 23 19 23 19 13 10 3 3 3 3 3 3 0 0 0 0 0 0 0 0 0 0 0 0 0 0 0 0 0 0 0 0 0 3 3
0 0 0 0 0 0 0 3 0 19 23 16 6 13 16 13 19 16 6 6 3 3 3 3 3 0 0 0 0 0 0 0 0 0 0 0 0 0 0 0 0 0 0 0 0 0 0 0 3

GEFSSGP_con_cape1000_150.txt.gz
Probability
0 0 0 0 0 0 0 0 0 0 0 10 13 26 35 45 65 74 58 48 71 90 90 100 100 100 100 100 100 100 100 100 100 100 100 100 100 100 100 100 100 100 100 100 100 94 90 90 94
0 0 0 0 0 0 0 0 3 3 3 13 16 42 61 58 61 58 55 68 71 77 94 100 100 100 100 100 100 100 100 100 100 100 100 100 100 100 100 100 100 100 100 97 100 97 90 94 97
0 0 0 0 0 0 0 6 6 0 3 16 32 52 77 74 71 71 74 74 77 90 94 97 100 100 100 97 97 97 97 97 100 100 100 100 100 100 100 100 97 97 97 97 97 100 97 94 100
0 0 0 0 0 0 0 6 3 3 10 13 35 65 71 71 81 71 74 74 74 84 94 97 97 97 97 97 97 97 97 97 100 100 100 100 100 100 100 100 97 97 97 94 97 97 94 87 90
0 0 0 0 0 0 3 3 0 3 13 26 42 74 71 71 77 68 74 71 71 77 84 87 97 97 94 97 97 97 94 97 97 97 97 100 100 100 97 94 87 94 97 94 94 90 94 87 87
0 0 0 0 0 0 0 0 0 6 16 32 52 77 74 71 71 65 68 68 68 77 84 90 94 94 94 94 87 87 90 90 87 90 90 94 94 94 97 97 84 87 87 90 90 90 87 81 81
0 0 0 0 0 0 0 0 3 6 19 26 45 84 74 74 74 65 65 58 61 71 74 71 77 87 87 87 87 87 84 84 84 87 87 87 87 87 87 90 90 94 87 90 81 81 84 84 87
0 0 0 0 0 0 0 3 13 26 23 35 61 74 77 77 84 77 65 68 61 61 65 74 68 81 77 84 84 84 84 84 84 84 84 84 87 87 87 90 97 90 90 87 87 81 84 87 94
0 0 0 0 0 0 0 3 16 29 35 45 58 74 74 77 77 81 65 61 74 71 65 65 65 71 74 74 74 81 81 81 81 81 84 84 87 81 87 81 87 87 87 90 90 87 87 97 100
0 0 0 0 0 0 0 3 10 29 48 52 61 71 74 77 77 74 68 61 58 58 48 58 65 65 61 61 68 74 74 81 81 81 81 74 77 77 74 71 84 81 81 87 84 90 97 94 74
0 0 0 0 0 0 3 6 10 16 39 58 61 77 81 77 77 68 65 58 52 61 58 55 58 68 65 68 61 74 68 71 74 74 77 77 81 77 81 81 81 77 81 74 81 87 71 87 61
0 0 0 0 0 0 6 16 39 52 45 55 58 71 71 68 71 61 61 58 55 58 48 55 58 65 71 77 68 74 74 71 68 77 74 74 74 71 77 81 81 77 71 77 77 77 74 68 61
0 0 0 0 3 10 19 29 42 48 48 55 58 61 65 68 65 65 61 58 52 52 55 55 65 68 68 68 65 48 61 52 52 61 61 65 65 58 65 65 71 71 65 61 71 65 74 71 74
0 0 0 6 10 10 16 32 42 52 48 55 45 52 58 61 61 55 55 58 52 52 55 55 58 61 68 68 61 58 48 55 55 55 55 58 61 65 65 68 68 65 58 55 61 61 61 58 68
0 0 0 3 6 6 16 32 42 48 48 48 52 45 52 52 48 52 52 55 52 58 58 58 52 52 61 61 52 45 45 45 45 45 42 42 45 48 55 52 52 58 58 58 58 52 61 58 45
0 0 0 0 0 6 10 29 42 48 48 45 45 45 45 42 42 42 45 52 52 52 58 61 48 52 58 65 65 48 45 45 45 42 39 35 35 35 42 52 52 48 48 48 45 45 48 45 48
0 0 0 0 0 0 0 23 45 45 45 42 45 39 45 29 35 39 42 52 48 52 52 55 52 55 52 55 58 52 48 42 39 35 32 29 29 29 35 42 45 42 42 42 29 39 39 35 35
0 0 0 0 0 0 0 19 39 39 39 48 39 32 35 29 32 32 32 32 39 39 42 48 48 55 55 52 45 48 45 35 35 32 32 29 29 26 29 26 35 32 35 42 35 35 35 32 35
0 0 0 0 0 0 6 19 32 42 39 39 42 32 35 32 32 32 29 23 26 23 23 32 29 32 42 45 42 32 35 35 29 26 29 29 29 29 29 26 32 35 32 35 29 32 32 26 29
0 0 0 3 0 0 6 29 32 42 42 52 48 42 35 35 29 32 26 26 23 19 23 23 26 23 26 32 32 26 23 32 29 23 19 23 29 29 23 29 32 32 32 26 26 23 23 19 19
0 0 0 0 0 0 3 16 35 32 32 48 58 52 42 39 35 26 23 19 19 19 19 23 23 23 23 23 19 23 26 23 16 16 23 19 19 23 23 23 29 32 32 26 26 23 16 13 16
0 0 0 0 0 0 0 0 26 32 29 42 55 45 45 35 32 26 19 23 19 19 19 23 19 19 23 23 23 16 23 13 10 13 19 19 19 19 19 23 23 23 26 23 19 19 10 16 13
0 0 0 0 0 0 0 0 6 23 26 35 52 55 45 29 35 32 23 23 19 19 16 19 16 16 16 19 19 16 19 10 13 13 19 19 16 13 16 16 19 19 19 19 16 13 10 10 10
0 0 0 0 0 0 0 0 3 19 19 32 45 42 39 29 23 19 23 19 19 16 16 16 16 16 16 16 19 16 13 10 13 10 10 10 10 6 3 6 10 10 10 6 13 10 6 6 3
0 0 0 0 0 0 0 0 3 13 16 16 32 29 29 29 19 26 19 19 16 16 16 16 16 16 16 16 16 13 13 10 10 10 10 10 3 3 6 6 6 3 3 3 6 6 6 3 3
0 0 0 0 0 0 0 0 13 10 19 23 23 29 26 26 23 19 23 23 16 16 16 16 16 16 16 13 13 13 13 16 13 13 6 3 3 3 0 0 0 0 0 0 3 3 3 3 3
0 0 0 0 0 0 0 0 13 23 23 26 26 26 29 32 26 23 23 19 16 16 16 16 16 13 13 13 10 13 13 10 6 10 6 3 0 0 0 0 0 0 0 0 0 0 3 3 3
0 0 0 0 0 0 0 0 6 19 16 23 19 26 26 29 23 23 23 19 16 16 13 13 10 6 6 6 6 6 0 0 0 3 0 0 0 0 0 0 0 0 0 0 0 0 0 3 3
0 0 0 0 0 0 0 3 6 16 16 16 19 19 26 29 26 29 26 19 19 13 13 10 6 6 6 6 3 0 0 0 0 0 0 0 0 0 0 0 0 0 0 0 0 0 0 0 0
0 0 0 0 0 0 0 6 13 23 19 6 16 13 19 29 26 23 23 16 16 13 10 6 3 3 3 0 0 0 0 0 0 0 0 0 0 0 0 0 0 0 0 0 0 0 0 0 0

GEFSSGP_con_cape1000_156.txt.gz
Probability
0 0 0 0 0 0 0 0 0 3 13 26 26 39 35 32 19 23 42 74 84 97 100 100 100 100 100 100 100 100 100 100 100 100 100 100 100 100 100 100 100 100 100 100 97 94 100 97 97
0 0 0 0 0 0 0 0 0 6 23 32 42 55 48 48 52 58 74 84 87 94 100 100 100 100 100 100 100 100 100 100 100 100 100 100 100 100 100 100 100 97 97 97 97 87 94 100 100
0 0 0 0 0 0 0 0 6 19 26 48 52 61 58 65 55 55 71 90 87 90 97 100 100 100 100 100 100 100 100 100 100 100 100 100 100 100 100 100 97 97 97 97 90 90 94 97 100
0 0 0 0 0 0 0 3 16 26 39 48 65 61 52 48 68 65 81 84 90 90 94 100 100 100 100 100 100 100 100 100 100 100 100 100 100 100 100 100 94 94 94 94 94 97 97 97 97
0 0 0 0 0 0 3 13 16 26 35 48 48 55 45 52 52 65 84 81 81 84 90 94 100 100 100 100 97 97 97 100 100 97 97 97 97 100 100 100 94 94 94 94 94 97 90 90 94
0 0 0 0 0 0 0 13 16 23 32 42 52 48 52 48 48 65 65 71 81 77 87 90 97 97 97 97 94 90 94 97 94 97 97 94 97 100 100 97 94 97 94 97 97 97 84 84 97
0 0 0 0 0 3 3 10 23 23 32 32 52 45 48 55 52 58 65 58 68 74 77 84 87 90 90 90 90 90 90 84 87 87 84 87 87 90 90 87 90 94 97 97 97 94 87 87 84
0 0 0 0 0 3 10 16 13 26 26 35 42 45 48 45 45 45 58 52 55 55 65 68 71 74 74 81 84 84 81 81 84 84 84 84 81 81 81 87 87 90 90 87 90 84 87 87 90
0 0 0 0 0 3 10 32 26 35 39 39 45 45 52 45 45 52 58 55 48 48 48 48 55 58 68 71 71 74 77 71 71 71 81 74 68 61 68 77 81 84 84 84 81 81 84 90 87
0 0 0 3 3 6 6 26 39 35 42 52 52 58 45 45 42 52 52 48 39 39 42 45 45 48 52 55 55 58 58 58 55 48 55 52 52 45 55 68 77 77 71 68 74 81 77 71 45
0 0 3 0 6 10 29 35 42 35 48 45 58 58 52 45 45 52 48 39 35 32 35 39 32 32 32 35 39 39 35 39 42 48 39 39 35 35 42 42 39 39 52 35 42 52 45 35 23
0 0 0 0 3 16 29 32 39 42 45 55 52 55 52 35 32 29 32 39 32 32 32 29 26 26 32 32 32 29 23 23 26 32 32 19 26 26 29 26 26 26 23 26 19 26 23 16 13
0 0 0 6 16 26 26 35 39 42 48 48 55 48 45 32 26 26 29 32 29 29 32 35 26 23 26 26 32 32 23 23 23 23 23 16 19 19 13 23 19 13 10 6 3 6 10 6 6
0 3 0 6 19 29 29 26 39 39 45 45 45 42 32 23 29 26 26 26 29 35 32 29 19 23 26 23 26 19 19 23 23 19 16 16 13 16 16 16 13 3 6 0 3 3 3 3 3
3 3 3 6 16 26 19 35 26 35 45 45 45 42 35 29 29 26 26 29 29 29 29 29 23 23 19 19 23 16 16 19 13 13 13 13 13 13 13 13 13 13 6 3 3 0 0 0 0
0 0 0 0 10 10 13 23 32 35 39 42 42 42 29 26 26 29 23 23 19 16 13 19 29 19 16 16 16 16 13 13 10 6 10 19 16 16 13 16 13 10 10 3 3 0 0 0 0
0 0 0 0 3 6 16 26 32 26 35 32 26 29 29 26 23 16 16 13 13 10 10 16 16 16 16 13 13 13 16 13 10 13 13 10 16 16 13 13 16 10 6 6 3 0 0 0 0
0 0 0 0 0 6 13 32 32 29 32 19 23 19 23 26 16 19 13 10 10 13 16 16 13 16 13 16 13 13 16 16 10 16 13 10 13 13 13 16 16 13 10 6 6 6 0 0 0
0 0 0 0 0 3 16 26 29 29 19 19 16 13 26 19 13 10 10 10 10 13 16 16 16 16 13 13 16 13 13 10 10 13 13 10 13 10 10 13 13 10 6 6 6 6 3 0 0
0 0 0 0 3 10 23 23 23 26 23 19 19 19 19 10 13 10 10 10 13 13 16 13 16 16 16 13 13 13 10 10 10 10 13 10 10 10 10 6 3 3 6 6 6 6 0 0 0
0 0 0 0 3 3 16 23 29 26 19 13 16 16 10 13 10 10 10 10 13 16 16 16 13 13 13 13 10 10 10 10 6 6 6 6 6 10 6 6 6 6 3 0 3 3 0 0 0
0 0 0 0 0 3 3 3 16 19 19 23 19 16 10 13 6 6 6 13 16 16 13 10 13 13 13 10 10 10 10 10 10 3 6 6 6 6 3 3 3 3 0 0 0 0 0 0 0
0 0 0 0 0 0 3 0 3 10 23 23 16 10 10 10 6 6 10 13 13 13 10 10 10 10 10 10 10 10 10 6 6 3 6 6 6 6 3 3 3 0 0 0 0 0 0 3 0
0 0 0 0 0 0 0 0 0 3 10 10 10 13 6 6 6 6 10 10 10 10 10 10 13 10 10 10 10 10 6 6 3 3 6 3 3 3 3 0 0 0 0 0 0 0 0 0 3
0 0 0 0 0 0 0 0 0 3 6 10 10 10 10 6 6 6 10 10 10 10 6 6 10 6 6 6 6 3 3 3 3 3 3 3 3 0 0 0 0 0 0 0 0 0 0 0 3
0 0 0 0 0 0 0 0 3 3 10 10 10 3 3 3 3 6 10 6 6 6 6 6 6 6 6 6 3 3 3 3 3 3 3 3 3 0 0 0 0 0 0 0 0 0 0 0 0
0 0 0 0 0 0 0 3 3 3 3 6 10 6 3 3 6 6 10 6 6 6 6 6 6 6 6 0 0 0 0 0 0 0 0 0 0 0 0 0 0 0 0 0 0 0 0 0 0
0 0 0 0 0 0 0 0 0 0 3 6 6 10 6 3 6 6 6 6 6 6 6 3 3 3 0 0 0 0 0 0 0 0 0 0 0 0 0 0 0 0 0 0 0 0 0 0 0
0 0 0 0 0 0 0 0 0 0 0 6 6 3 10 6 3 3 6 6 6 3 3 3 3 0 0 0 0 0 0 0 0 0 0 0 0 0 0 0 0 0 0 0 0 0 0 0 0
0 0 0 0 0 0 0 0 0 0 0 0 6 6 3 6 0 0 3 6 3 3 3 3 3 0 0 0 0 0 0 0 0 0 0 0 0 0 0 0 0 0 0 0 0 0 0 0 0

GEFSSGP_con_cape1000_162.txt.gz
Probability
0 0 0 0 0 0 0 0 0 0 16 13 13 16 23 23 10 6 19 55 84 90 94 100 100 100 100 100 100 100 100 100 100 100 100 100 100 100 100 100 100 100 100 97 97 97 100 97 100
0 0 0 0 0 0 0 0 0 6 16 29 39 42 52 48 52 52 71 84 87 94 97 100 100 100 100 100 100 100 100 100 100 100 100 100 100 100 100 100 97 97 97 94 94 97 94 94 100
0 0 0 0 0 0 0 3 13 16 29 39 48 55 55 61 71 74 74 87 87 94 94 100 100 100 100 100 100 100 100 100 100 100 100 100 100 100 100 100 97 97 94 90 87 87 87 90 94
0 0 0 0 0 0 0 0 19 23 29 48 52 48 48 52 65 71 77 84 87 90 90 100 100 100 100 100 100 100 100 100 100 100 97 97 97 97 100 97 97 97 100 94 87 87 90 94 94
0 0 0 0 0 0 0 3 13 23 39 55 35 45 48 61 71 74 77 84 90 87 87 94 97 100 100 94 94 97 97 97 97 97 97 97 97 97 97 97 97 97 94 90 90 97 97 97 97
0 0 0 0 0 0 0 10 23 26 26 29 42 52 39 61 77 77 77 74 81 84 87 87 94 87 87 87 90 90 87 90 90 97 94 97 97 97 97 97 97 97 90 94 94 97 97 94 97
0 0 0 0 0 6 6 10 13 23 26 32 42 45 52 61 68 65 68 68 71 71 74 81 84 84 90 90 90 90 90 90 90 90 90 90 94 94 90 90 90 94 90 87 84 84 84 90 90
0 0 0 0 0 3 3 13 19 23 23 29 35 39 42 58 58 58 58 61 65 65 65 65 68 74 84 84 90 87 87 84 84 84 87 87 81 77 84 87 87 84 84 81 77 87 84 84 87
0 0 3 3 0 3 6 16 23 19 29 45 39 26 48 52 55 55 55 55 58 52 55 55 52 58 58 71 74 65 65 65 58 61 68 65 52 48 55 71 77 74 77 77 81 81 74 77 74
0 3 3 3 3 3 10 13 26 26 35 32 39 42 48 48 52 48 48 48 48 45 45 45 48 48 48 52 52 55 55 52 48 48 48 48 42 42 52 58 65 68 65 61 65 65 65 52 35
0 3 3 3 3 3 16 23 29 26 32 32 45 45 55 45 45 32 26 29 35 45 42 42 39 39 35 39 45 42 35 42 42 42 42 32 23 26 35 32 35 32 39 32 29 32 32 35 26
0 0 3 6 3 13 13 16 19 26 26 39 55 52 48 42 39 39 32 29 32 35 42 35 29 26 29 32 32 26 26 26 29 26 32 23 19 23 26 29 32 29 23 23 26 19 23 16 16
0 3 10 10 13 16 23 19 23 26 35 42 52 45 42 39 32 29 26 23 26 29 32 26 26 26 23 23 26 26 26 23 16 16 23 16 16 13 23 23 16 19 19 13 10 10 10 10 10
0 6 6 10 13 16 19 19 29 35 35 32 39 39 39 35 29 29 26 19 19 19 23 23 19 16 19 16 19 16 19 16 16 16 19 16 16 13 10 16 16 16 13 10 6 6 10 6 6
3 6 10 10 10 16 19 19 29 35 35 29 32 29 29 23 23 23 19 23 19 16 10 13 13 13 13 13 10 6 6 13 19 13 13 16 13 13 13 13 13 13 13 10 6 6 0 3 3
0 3 3 6 10 13 13 16 26 35 32 32 32 29 26 23 16 16 13 13 13 13 6 6 13 10 10 10 10 6 10 10 10 10 6 10 10 10 13 13 13 13 6 6 6 6 0 3 0
0 0 0 3 0 6 13 19 29 32 32 32 26 26 19 19 16 16 16 16 16 10 10 6 6 10 10 6 10 10 10 10 10 6 6 6 10 13 10 10 13 13 3 6 3 3 0 0 0
0 0 0 0 0 6 10 16 26 32 35 32 26 23 19 19 16 16 16 13 10 10 10 6 10 6 6 10 10 10 6 6 3 6 6 10 10 10 6 10 10 6 3 3 0 3 0 0 0
0 0 0 0 0 3 10 13 26 29 23 29 26 16 23 23 16 16 13 13 13 10 13 10 3 6 10 10 10 10 10 6 6 10 10 10 6 6 6 10 6 0 0 3 3 0 0 0 0
0 0 0 0 3 10 10 13 16 23 16 19 19 23 19 16 16 10 10 10 10 6 6 3 6 3 6 10 10 10 10 6 6 6 3 3 6 6 6 6 6 3 0 0 6 6 0 0 0
0 0 0 0 10 10 10 10 16 16 19 23 16 16 19 10 10 10 10 10 13 13 6 3 3 6 10 10 10 10 10 3 6 3 3 6 3 3 6 3 3 3 0 0 0 3 0 0 0
0 0 0 3 0 0 0 0 10 10 19 19 23 16 13 10 6 3 10 10 10 10 10 6 6 6 10 10 10 10 10 10 6 3 3 3 6 6 3 3 3 3 3 0 0 0 3 0 0
0 0 0 0 0 0 0 0 0 6 16 16 23 19 23 10 6 10 6 3 6 6 6 6 6 6 10 10 10 10 10 10 3 0 0 0 0 3 3 3 3 3 3 0 0 0 0 0 0
0 0 0 0 0 0 0 0 0 0 6 10 10 10 13 13 10 6 6 3 3 6 6 6 6 6 6 6 10 10 10 6 3 3 3 0 0 0 3 3 3 0 0 0 0 0 0 0 0
0 0 0 0 0 0 0 0 0 0 0 0 3 6 10 6 6 6 6 6 3 6 3 6 6 6 6 6 6 6 6 6 3 3 3 3 0 0 0 0 0 0 0 0 0 0 0 0 0
0 0 0 0 0 0 0 0 0 0 0 0 3 10 3 3 3 6 6 6 6 3 6 6 6 6 6 6 6 6 6 6 6 3 0 0 0 0 0 0 0 0 0 0 0 0 0 0 0
0 0 0 0 0 0 0 0 0 3 0 3 3 3 3 3 6 6 3 3 3 3 6 6 6 6 6 6 6 3 3 0 0 0 0 0 0 0 0 0 0 0 0 0 0 0 0 0 0
0 0 0 0 0 0 0 0 0 0 3 0 3 3 3 3 6 6 3 3 3 3 0 3 3 3 3 3 3 3 0 0 0 0 0 0 0 0 0 0 0 0 0 0 0 0 0 0 0
0 0 0 0 0 0 0 0 0 0 0 0 0 0 0 3 3 0 0 0 0 0 0 3 3 3 3 3 0 0 0 0 0 0 0 0 0 0 0 0 0 0 0 0 0 0 0 0 0
0 0 0 0 0 0 0 0 0 0 0 0 0 0 0 3 3 0 0 0 0 0 0 3 3 3 0 0 0 0 0 0 0 0 0 0 0 0 0 0 0 0 0 0 0 0 0 0 0

GEFSSGP_con_cape1000_168.txt.gz
Probability
0 0 0 0 0 0 0 0 3 0 10 10 13 3 10 13 16 55 71 52 48 55 65 58 97 97 97 100 100 100 100 100 100 100 100 100 100 100 100 100 97 97 97 97 94 90 94 87 90
0 0 0 0 0 0 0 3 6 6 16 26 26 32 39 68 71 65 65 58 52 61 68 65 97 97 97 100 100 100 100 100 100 100 100 100 100 97 97 97 94 94 94 90 81 77 81 90 94
0 0 0 0 0 0 3 6 16 13 26 26 32 39 61 74 71 58 65 65 55 71 77 84 97 97 97 100 100 100 100 100 97 97 100 97 94 94 94 94 84 84 84 90 84 71 77 81 84
0 0 0 0 0 3 6 13 26 23 39 39 29 52 77 68 71 68 74 58 61 71 74 81 97 94 97 97 97 97 94 97 97 97 97 97 97 94 94 94 90 90 84 77 87 84 81 77 77
0 0 0 0 0 6 16 16 19 26 39 42 42 45 68 77 71 71 77 65 65 65 74 77 94 90 90 90 90 94 94 94 94 94 90 94 90 97 97 97 90 87 87 81 81 81 84 84 84
0 0 0 0 3 6 16 16 23 26 29 39 45 48 71 77 77 84 71 68 61 65 77 84 94 87 87 87 87 90 90 90 90 90 90 90 87 87 87 84 84 84 81 77 77 77 71 77 87
0 0 0 0 6 16 26 26 26 23 29 39 39 45 81 87 77 81 71 68 61 65 71 81 81 90 87 87 87 87 87 87 87 87 87 90 90 90 81 81 81 77 77 74 71 74 74 77 77
0 0 0 0 6 16 29 29 32 29 42 48 45 35 74 84 81 74 74 71 65 65 65 68 71 81 81 81 81 81 81 81 77 77 81 81 84 81 81 81 77 77 74 71 65 68 61 65 71
0 0 0 3 10 19 32 35 39 39 48 48 52 42 77 81 77 74 71 68 65 65 68 71 74 77 65 61 68 68 65 68 68 71 68 71 71 68 71 61 68 71 71 71 71 61 61 68 68
0 0 3 10 13 26 29 32 39 35 42 45 61 71 77 77 71 68 65 68 68 65 65 71 68 71 61 52 71 74 65 65 61 58 61 65 65 61 32 52 58 55 52 48 55 58 61 61 52
3 6 13 13 16 23 35 35 39 29 35 35 55 74 74 71 65 65 61 61 61 65 65 65 71 71 65 68 71 68 58 61 58 58 61 61 61 55 39 58 55 61 42 45 45 52 52 39 35
3 10 6 6 19 26 29 35 32 32 39 42 58 74 68 68 65 58 61 61 65 61 61 61 71 68 68 68 58 52 48 52 48 55 55 52 55 52 52 52 45 52 55 48 45 52 45 39 32
13 10 10 19 29 42 35 32 35 42 48 52 55 58 58 58 61 58 65 65 58 58 58 65 61 61 61 61 55 45 48 45 48 52 52 52 52 52 58 61 55 52 42 42 52 45 42 39 35
13 13 16 26 29 39 35 32 42 45 48 55 61 65 58 55 52 52 58 52 52 55 58 55 61 61 58 58 55 45 42 48 39 48 45 48 48 45 48 52 48 45 42 32 39 32 39 39 29
16 23 26 32 32 32 32 32 32 39 52 55 58 52 52 48 48 48 52 52 58 55 55 58 58 55 52 52 45 42 42 45 48 39 45 45 45 45 42 39 39 35 35 29 35 35 32 29 19
6 6 6 19 32 32 26 23 35 45 55 55 52 52 58 58 48 45 48 55 55 55 55 52 45 45 45 45 42 35 32 32 35 42 42 39 42 39 42 39 32 35 29 26 32 29 35 26 29
0 3 6 13 26 19 23 19 42 55 48 52 48 55 52 45 42 48 52 48 45 52 52 52 42 42 42 35 39 35 39 35 35 39 32 32 39 42 39 39 39 39 29 26 26 26 26 26 29
0 0 3 6 19 16 16 32 35 52 52 48 48 42 45 48 48 39 35 39 42 45 39 42 39 35 32 23 23 23 26 29 26 29 35 35 35 32 29 29 32 26 29 26 26 26 29 26 19
0 0 0 10 16 13 13 19 42 45 42 48 45 45 48 45 35 39 32 35 39 39 39 39 32 32 29 19 16 19 26 32 26 23 23 23 23 19 23 26 26 29 26 26 19 19 19 19 23
0 0 0 10 16 10 6 13 26 45 45 42 48 52 48 42 45 32 32 35 39 39 39 29 29 26 29 23 26 26 23 19 16 16 19 19 19 19 16 19 23 26 26 23 19 16 19 19 16
0 0 0 6 3 3 3 10 23 29 48 45 45 48 55 45 42 35 29 32 29 29 29 23 29 29 26 23 19 19 23 19 19 19 19 16 16 16 16 13 16 19 13 16 23 16 16 19 16
0 0 0 6 3 3 3 3 13 23 42 52 45 45 55 48 45 35 29 29 26 26 19 19 23 23 26 23 19 19 19 16 16 16 13 16 13 10 10 13 16 16 16 13 10 13 19 16 16
3 3 6 3 0 0 3 0 3 19 26 42 58 52 52 52 42 45 32 26 19 16 16 13 13 16 16 19 23 19 19 16 13 16 13 13 13 10 6 10 13 10 10 6 10 10 10 13 13
6 6 3 3 0 0 0 0 0 16 19 26 35 48 58 45 48 42 32 23 16 13 13 13 13 10 16 16 19 19 19 19 16 16 16 10 10 10 6 6 6 3 6 13 10 10 10 10 13
3 0 0 0 0 0 0 0 0 6 10 16 29 32 48 48 48 26 26 26 23 13 13 13 10 10 10 10 13 19 19 19 16 19 13 6 6 6 10 3 10 3 3 3 10 13 13 10 6
0 0 0 0 0 0 0 0 3 3 10 13 26 35 42 45 42 29 23 23 23 16 13 16 16 13 10 6 6 10 10 10 10 13 13 13 10 13 10 10 10 3 3 3 3 10 6 3 0
0 0 0 0 0 0 0 0 10 13 10 16 23 29 35 42 35 23 13 13 19 16 16 13 13 10 10 6 10 13 10 10 13 13 10 10 10 6 10 10 6 0 0 0 0 0 0 0 0
0 0 0 0 0 0 0 0 3 19 23 19 23 23 32 29 29 19 13 13 16 10 10 13 10 10 10 10 10 10 13 6 6 6 6 6 3 0 0 0 0 0 0 0 0 0 0 0 0
0 0 0 0 0 0 0 0 0 13 26 19 16 13 19 23 23 19 16 16 13 13 10 13 13 10 10 10 6 10 10 6 6 6 6 3 3 0 0 0 0 0 0 0 0 0 0 0 0
0 0 0 0 0 0 0 0 0 6 10 13 10 16 16 19 23 16 16 13 6 10 10 13 13 10 6 6 3 3 3 3 6 3 3 3 3 0 0 0 0 0 0 0 0 0 0 0 0

GEFSSGP_con_cape1000_174.txt.gz
Probability
0 0 0 0 0 0 0 0 0 3 6 6 10 19 45 61 52 55 39 52 55 45 65 90 97 94 94 97 97 97 97 97 97 97 97 97 94 94 90 87 81 77 74 68 71 68 68 68 68
0 0 0 0 0 0 0 0 3 10 6 10 19 35 39 58 55 48 45 61 55 45 58 81 97 94 94 94 94 94 94 94 97 94 94 94 94 94 87 84 74 77 71 58 65 61 61 61 68
0 0 0 0 0 0 0 3 6 3 6 13 32 35 48 55 55 61 61 52 55 61 74 97 97 94 94 94 94 90 90 90 90 90 87 90 94 90 87 77 77 71 74 68 68 65 65 58 55
0 0 0 0 0 3 3 6 6 6 13 19 32 55 65 61 61 65 55 61 65 61 71 90 94 94 94 94 94 94 90 90 90 90 90 87 84 84 81 81 71 68 68 71 71 77 68 65 71
0 0 0 0 0 6 10 6 3 16 13 23 42 52 65 65 61 65 58 61 68 65 68 74 94 94 94 94 94 90 87 84 81 81 77 77 81 84 74 68 68 74 74 68 65 65 71 81 77
0 0 0 0 0 10 10 0 0 19 23 39 48 68 68 58 68 65 55 61 55 61 61 77 90 94 90 87 87 84 81 81 77 81 74 74 81 84 77 68 65 61 61 65 61 65 65 65 68
0 0 0 0 0 3 6 0 6 16 23 29 45 68 71 71 68 65 55 52 55 61 58 61 71 84 87 87 81 81 77 74 71 71 68 74 74 71 68 71 68 58 55 55 55 55 61 61 65
0 0 0 0 0 6 3 6 23 19 35 32 45 68 81 81 65 55 48 45 48 48 58 55 58 77 81 81 77 74 71 74 74 71 65 61 61 58 55 61 61 55 55 52 52 55 61 68 74
0 0 0 3 3 3 6 16 19 23 32 35 48 58 84 77 61 52 48 52 52 52 58 52 65 65 58 52 71 74 71 71 68 68 65 61 65 58 55 55 55 52 52 55 61 65 71 77 77
0 0 6 0 0 3 10 13 19 19 32 39 61 65 74 71 61 55 52 52 52 58 61 61 65 61 55 52 74 77 65 74 65 61 65 65 71 65 52 52 55 52 48 48 52 58 65 68 65
0 6 10 6 0 3 10 19 13 10 19 39 55 65 65 71 61 55 55 52 55 65 61 68 68 68 58 68 61 71 68 65 68 58 65 61 61 61 55 58 55 58 52 48 55 58 58 48 52
3 10 3 3 6 6 10 13 16 29 29 39 58 58 55 71 68 58 58 65 65 68 58 61 65 68 65 61 68 68 68 61 55 55 55 52 55 55 52 58 58 58 61 58 61 58 52 42 45
3 3 6 3 6 6 10 16 16 26 32 35 45 55 58 65 68 65 68 68 68 65 65 58 65 71 71 74 65 61 68 61 55 55 52 52 48 48 45 55 55 52 55 52 55 55 48 45 35
0 3 3 0 3 13 10 16 19 23 29 32 48 52 52 61 68 65 61 68 65 65 68 71 71 65 61 61 58 61 55 58 55 52 52 48 48 48 52 48 55 52 48 48 48 45 48 42 39
3 3 3 6 10 10 16 19 16 19 26 32 42 48 58 65 61 61 65 68 68 68 71 68 61 61 61 58 55 52 52 52 52 52 48 48 42 45 48 52 45 48 45 45 39 39 39 35 29
3 3 0 3 6 10 10 16 16 23 26 29 35 55 61 65 61 55 65 65 68 71 68 65 52 55 55 55 55 55 45 45 48 45 45 45 45 39 45 45 48 48 48 42 42 39 35 32 29
0 0 0 0 3 0 13 13 26 23 29 32 42 45 61 61 65 61 65 65 68 65 61 61 55 52 52 52 52 48 42 39 39 42 39 39 42 42 45 45 45 45 45 45 32 39 35 29 26
0 0 3 0 3 6 6 10 32 23 29 29 52 52 65 52 58 55 61 58 61 58 61 52 48 52 55 45 42 42 32 35 35 35 39 39 39 39 39 42 39 39 42 35 32 32 32 23 26
0 0 0 0 0 6 10 10 23 32 32 29 35 48 48 45 52 58 58 55 58 55 55 48 48 48 48 42 32 29 23 32 35 35 35 35 35 35 35 35 35 32 29 32 32 29 23 23 23
0 0 0 0 0 10 10 10 16 23 32 32 35 42 48 52 45 55 52 52 52 52 45 48 48 48 42 45 39 39 32 32 26 26 29 29 26 26 23 29 29 29 29 29 29 26 19 19 19
0 0 0 0 0 3 3 6 13 26 23 26 35 39 39 48 48 48 55 48 48 45 42 32 42 45 39 39 35 26 26 23 23 23 26 23 23 23 26 26 23 26 26 26 26 26 23 13 13
0 0 0 0 0 0 0 0 10 26 26 29 26 35 39 42 48 48 52 52 48 45 39 42 35 32 35 32 29 23 23 23 23 23 23 19 19 19 19 19 16 16 19 23 19 23 23 16 13
0 0 0 0 0 0 3 3 3 23 23 26 26 26 35 48 48 55 48 52 45 39 35 35 35 35 32 32 32 23 16 23 26 23 19 19 19 16 13 10 10 16 13 13 23 16 19 13 13
0 0 0 0 0 0 0 0 3 13 16 23 23 23 35 42 55 52 48 52 45 32 32 35 32 29 29 26 23 19 19 19 19 16 19 19 16 13 10 10 6 6 16 16 16 16 13 16 6
0 0 0 0 0 0 0 0 3 13 6 16 32 26 35 48 48 52 48 39 35 32 26 26 23 23 23 19 19 19 19 19 19 19 23 19 16 16 13 10 6 6 10 13 16 13 13 10 10
0 0 0 0 0 0 0 0 16 16 23 26 32 35 35 45 48 52 42 42 35 26 32 23 23 16 16 19 19 16 19 19 19 19 19 16 16 13 13 10 10 10 10 10 13 10 6 3 6
0 0 0 0 0 0 0 3 10 19 23 13 23 23 42 39 35 39 42 42 39 32 35 23 23 16 16 16 13 10 10 6 6 10 10 10 6 10 10 10 6 6 10 10 13 10 6 6 3
0 0 0 0 0 0 0 0 0 13 19 13 23 29 35 32 32 45 42 32 29 26 26 26 19 10 10 13 13 6 6 6 6 6 13 10 6 6 6 6 6 6 6 6 10 6 6 6 3
0 0 0 0 0 0 0 0 0 23 19 10 23 26 32 29 35 42 35 32 23 19 23 19 13 10 10 10 10 13 10 10 6 10 6 6 3 3 0 3 3 3 3 3 3 0 0 0 0
0 0 0 0 0 0 0 3 6 16 16 16 23 23 26 32 35 35 29 26 23 19 16 10 6 6 10 13 13 10 10 6 6 3 0 0 0 0 0 3 3 3 3 3 3 3 0 0 0

GEFSSGP_con_cape1000_180.txt.gz
Probability
0 0 0 0 0 0 0 0 0 3 3 13 19 29 35 26 16 19 6 16 45 71 87 97 97 97 97 100 97 97 97 94 90 90 97 97 97 94 87 84 81 81 77 61 58 58 58 61 65
0 0 0 0 0 0 0 0 3 3 6 13 26 29 42 42 29 26 16 32 58 74 77 94 97 94 94 97 97 97 94 94 90 90 90 94 94 90 90 77 74 81 71 61 52 58 61 58 58
0 0 0 0 0 0 0 0 6 10 16 23 23 39 39 48 42 35 29 35 48 68 77 90 94 94 94 94 97 97 94 94 94 90 84 87 87 87 84 81 71 71 68 65 61 55 55 61 65
0 0 0 0 0 0 0 3 6 3 19 23 32 48 45 42 45 35 39 48 55 74 84 90 94 94 94 94 94 94 94 90 90 87 84 81 81 84 84 77 65 61 52 52 58 55 61 65 65
0 0 0 0 0 0 0 0 0 10 23 26 29 45 52 45 39 39 39 48 55 74 81 87 94 94 94 94 94 94 90 90 87 84 81 84 87 90 77 71 61 65 65 58 61 65 65 65 65
0 0 0 0 0 0 0 0 3 16 26 23 35 48 52 52 48 52 42 45 52 68 84 84 90 90 90 90 94 94 90 87 90 90 81 77 84 81 74 65 61 55 55 65 61 68 68 68 71
0 0 0 0 0 0 0 3 19 16 23 26 35 42 55 45 48 52 52 42 42 58 71 81 84 87 90 90 87 81 84 81 81 77 84 81 77 71 61 58 58 55 55 55 48 55 55 68 74
0 0 0 0 0 0 6 3 23 23 23 29 32 55 52 52 45 42 52 39 42 48 61 65 71 71 74 77 81 81 77 74 74 71 68 65 68 68 68 61 61 52 52 48 52 55 58 65 74
0 0 0 0 0 0 6 16 19 26 39 42 48 55 55 52 45 45 42 39 29 35 52 52 58 55 61 65 68 68 71 65 61 58 61 61 52 48 45 52 58 52 45 45 48 52 55 58 58
0 0 0 0 0 3 3 6 26 23 35 42 45 52 52 45 45 48 42 45 42 42 39 42 45 42 52 58 58 58 58 58 55 52 52 45 32 26 35 45 48 48 48 42 48 48 48 52 35
0 0 0 0 0 6 10 6 23 26 35 42 39 48 52 35 39 42 45 42 35 39 39 32 32 29 39 29 42 45 35 45 39 35 42 32 23 23 29 23 35 39 35 29 23 35 29 19 13
0 0 0 0 0 6 3 10 23 26 29 42 42 52 45 35 35 39 35 32 39 39 35 29 29 26 23 23 26 23 23 23 26 19 23 16 19 10 3 3 16 23 13 10 6 6 10 6 6
0 3 6 0 3 3 10 16 23 39 39 45 45 52 42 35 35 35 35 35 42 39 32 42 29 23 19 19 19 26 23 23 16 16 23 10 6 3 6 6 13 3 0 3 3 3 0 0 0
0 0 3 0 6 3 10 16 23 35 45 45 52 58 52 39 35 32 45 39 42 42 39 32 29 26 29 26 23 32 26 19 16 13 16 23 6 10 6 6 6 0 0 0 6 0 0 0 0
0 0 0 3 3 3 3 10 13 23 35 45 48 58 58 32 32 32 35 35 35 35 39 39 35 32 29 19 16 23 26 19 13 13 13 19 16 16 10 6 3 0 0 0 0 0 0 0 0
0 0 0 0 0 0 0 3 19 19 29 42 48 61 48 42 32 32 29 32 32 35 39 35 35 26 23 23 23 19 19 19 19 10 16 23 19 13 13 13 6 3 3 3 3 0 0 0 0
0 0 0 0 0 0 0 6 19 10 26 35 39 52 45 39 23 26 35 29 26 29 26 29 26 19 19 13 13 19 19 19 19 16 16 19 19 16 10 10 10 6 6 3 3 0 0 0 0
0 0 0 0 0 0 0 6 16 23 13 23 32 42 39 32 32 39 42 29 26 29 32 29 23 16 13 10 10 13 13 13 13 13 13 13 16 16 10 10 3 6 6 3 3 0 0 0 0
0 0 0 0 0 0 0 10 13 16 16 16 19 19 32 35 26 35 45 39 29 29 32 23 19 10 10 10 13 13 13 10 13 13 13 13 13 16 13 13 3 3 3 3 3 0 0 0 0
0 0 0 0 3 3 3 3 3 6 16 13 10 16 29 39 32 35 29 32 29 26 23 26 23 10 10 10 10 10 10 10 10 13 13 13 16 16 19 10 6 3 3 3 3 0 0 0 0
0 0 0 0 0 3 0 0 6 6 6 10 3 6 23 42 32 35 35 32 29 26 23 23 19 10 10 10 10 10 10 10 10 10 10 10 13 6 10 10 6 3 3 3 3 0 0 0 0
0 0 0 0 0 0 0 0 0 0 6 6 10 13 13 32 39 32 35 32 29 23 19 16 13 10 6 3 6 6 10 6 10 10 6 6 6 10 10 6 3 3 3 3 3 0 0 0 0
0 0 0 0 0 0 0 0 0 0 6 13 13 13 16 29 39 32 32 29 23 19 19 13 10 10 6 6 6 6 6 6 10 6 6 6 6 3 3 3 3 3 3 3 3 0 0 0 0
0 0 0 0 0 0 0 0 0 0 3 6 16 16 16 19 32 35 29 26 16 16 16 13 6 10 6 6 6 6 6 6 6 6 6 6 3 3 3 3 3 3 3 3 0 0 0 0 0
0 0 0 0 0 0 0 0 3 3 3 10 10 13 23 19 26 29 23 16 16 16 16 13 10 10 6 6 6 6 6 6 6 6 6 6 6 3 3 3 3 3 0 0 0 0 0 0 0
0 0 0 0 0 0 0 0 0 3 6 6 6 16 16 19 16 19 16 10 10 13 16 13 10 6 10 6 6 6 6 6 6 6 6 6 6 6 3 3 3 0 0 0 0 0 0 0 0
0 0 0 0 0 0 0 0 0 3 10 10 10 10 13 13 19 23 10 10 10 10 10 13 10 6 6 6 6 6 6 6 6 6 6 6 3 0 0 0 0 0 0 0 0 0 0 0 0
0 0 0 0 0 0 0 0 0 3 0 6 6 6 13 10 13 13 10 10 10 10 10 6 10 6 6 3 6 6 6 6 6 6 6 0 0 0 0 0 0 0 0 0 0 0 0 0 0
0 0 0 0 0 0 0 0 0 0 0 3 6 13 13 13 13 13 6 10 10 10 6 6 6 3 6 3 3 3 3 3 3 0 0 0 0 0 0 0 0 0 0 0 0 0 0 0 0
0 0 0 0 0 0 0 0 3 0 6 6 6 10 13 10 10 10 10 6 10 10 6 6 3 3 3 3 3 3 0 0 0 0 0 0 0 0 0 0 0 0 0 0 0 0 0 0 0

GEFSSGP_con_cape1000_186.txt.gz
Probability
0 0 0 0 0 0 0 0 0 0 6 6 13 10 6 6 6 0 3 16 32 65 81 94 90 94 94 94 94 94 87 87 94 90 90 94 94 94 94 87 84 81 71 65 58 61 55 58 61
0 0 0 0 0 0 0 0 0 0 6 13 13 19 23 19 26 10 16 29 52 71 84 87 94 97 94 94 97 97 87 87 90 94 97 97 94 94 84 84 81 74 65 58 55 45 45 45 48
0 0 0 0 0 0 0 0 0 3 6 16 19 19 32 32 26 13 29 48 65 68 87 90 94 94 94 94 94 94 87 87 87 87 90 84 84 81 77 71 68 71 61 61 48 42 45 48 48
0 0 0 0 0 0 0 0 3 10 13 19 23 32 35 32 32 23 39 55 65 74 81 90 94 94 94 94 94 90 90 87 87 84 84 84 77 77 77 74 65 65 58 55 55 52 39 45 48
0 0 0 0 0 0 0 0 0 10 16 13 23 23 32 42 39 39 52 58 58 71 74 94 94 94 94 90 90 90 90 90 87 84 81 81 81 77 71 71 65 55 52 55 52 68 65 58 52
0 0 0 0 0 0 0 0 3 10 13 19 19 23 42 39 32 45 52 52 71 77 77 81 94 94 94 90 87 87 84 84 87 87 81 71 71 68 61 58 55 48 55 52 52 61 58 61 61
0 0 0 0 0 0 0 3 10 13 23 23 29 23 42 39 45 48 48 65 74 77 74 77 84 84 87 90 87 84 81 81 77 77 74 71 71 61 68 68 65 58 55 55 48 52 52 65 58
0 0 0 0 0 0 0 10 16 16 16 23 32 35 39 52 42 45 45 48 61 65 68 71 71 81 77 77 84 81 77 77 74 68 61 55 52 58 55 58 65 58 55 45 45 48 48 52 55
0 0 0 0 0 0 3 13 26 26 26 32 42 42 42 45 48 42 45 42 42 55 61 68 65 61 61 71 71 71 68 61 55 55 55 55 45 45 45 39 55 48 45 42 42 42 45 45 48
0 0 0 0 0 0 0 10 26 32 29 32 48 52 48 48 48 45 39 32 32 39 45 48 42 48 52 65 61 55 58 52 52 48 52 39 29 29 29 42 45 42 42 39 42 42 35 32 26
0 0 0 0 3 3 0 13 23 19 16 35 42 48 48 48 45 45 32 26 26 29 35 32 32 35 39 35 39 42 42 39 32 35 35 32 29 23 26 23 26 32 32 29 23 19 19 19 16
0 0 0 0 0 0 3 10 26 16 16 23 39 35 45 45 45 45 48 35 29 32 26 29 32 26 23 16 26 26 32 29 29 29 23 19 19 16 10 13 13 6 6 13 16 16 13 16 6
0 0 0 0 6 3 3 10 26 26 29 39 39 39 45 42 48 52 35 32 35 35 32 16 19 16 16 16 16 16 13 13 16 13 13 10 10 6 6 10 3 3 3 3 3 10 3 3 3
3 0 3 6 6 10 13 13 23 29 32 39 42 45 45 45 45 35 29 29 32 26 26 16 16 13 13 16 13 13 10 10 10 6 6 10 3 3 6 0 0 0 0 3 3 3 0 3 3
3 3 3 3 3 10 10 19 23 19 39 45 42 48 48 35 39 29 23 19 26 23 19 16 13 13 13 13 10 6 3 3 3 3 3 3 3 0 0 0 0 0 0 3 3 0 0 0 0
0 3 0 3 3 6 6 6 6 13 29 42 42 45 42 35 32 29 26 19 23 19 19 16 23 13 10 6 6 3 3 10 3 0 0 6 10 6 0 0 0 0 0 3 3 0 0 0 0
0 0 0 0 0 3 6 3 3 16 19 39 45 45 39 39 32 32 26 23 19 23 19 16 16 10 10 6 6 3 3 3 0 0 0 0 10 6 6 0 0 0 0 0 0 3 0 0 0
0 0 0 0 3 6 3 10 10 16 19 19 32 35 39 35 29 32 32 26 23 23 16 16 16 6 6 3 6 3 3 0 0 0 0 3 3 0 3 3 3 0 0 0 0 0 0 0 0
0 0 0 0 3 3 3 10 16 13 16 23 26 35 42 42 32 32 29 23 23 19 16 16 16 6 6 3 6 3 3 3 3 3 0 3 3 3 0 0 3 0 0 0 0 0 0 0 0
0 0 3 3 3 3 3 10 13 13 10 13 13 26 29 29 29 29 26 26 19 23 19 16 6 6 6 3 3 6 6 3 3 3 3 3 3 3 6 0 0 0 0 0 0 0 0 0 0
0 0 0 0 0 0 0 3 3 3 6 3 6 16 19 19 26 26 32 26 26 19 19 13 6 3 3 3 3 3 0 0 0 0 0 0 3 3 3 3 0 3 6 6 3 0 0 0 0
0 0 0 0 0 0 0 0 3 3 3 10 6 6 6 3 13 23 26 19 29 19 13 13 6 3 3 3 3 3 3 3 3 3 0 0 3 3 3 3 3 3 3 6 6 0 0 0 0
0 0 0 0 0 0 0 0 0 0 6 10 6 10 10 6 10 16 23 23 19 13 13 10 6 3 3 3 3 3 3 3 3 3 3 3 0 0 3 3 3 3 0 3 0 0 0 0 0
0 0 0 0 0 0 0 0 0 0 0 0 10 16 10 16 19 16 16 16 6 13 6 6 6 3 6 3 3 3 3 3 3 3 3 3 3 0 0 0 0 0 0 0 0 0 0 0 0
0 0 0 0 0 0 0 0 0 3 0 0 3 6 16 16 16 16 13 19 6 10 6 6 6 3 6 6 3 3 3 3 3 3 3 3 3 0 0 0 0 0 0 0 0 0 0 0 0
0 0 0 0 0 0 0 0 0 0 0 3 0 10 13 10 6 3 10 10 6 10 10 6 6 6 6 6 6 3 3 3 3 3 3 3 0 0 0 0 0 0 0 0 0 0 0 0 0
0 0 0 0 0 0 0 0 0 0 0 10 10 10 10 6 3 3 6 3 6 10 10 10 6 6 3 6 6 3 3 6 6 3 3 0 0 0 0 0 0 0 0 0 0 0 0 0 0
0 0 0 0 0 0 0 0 0 0 0 3 6 6 10 10 3 3 3 0 3 6 10 10 6 3 3 3 3 3 3 3 3 0 0 0 0 0 0 0 0 0 0 0 0 0 0 0 0
0 0 0 0 0 0 0 0 0 0 0 3 3 10 6 6 10 10 6 0 0 6 6 6 3 0 3 3 3 3 3 0 0 0 0 0 0 0 0 0 0 0 0 0 0 0 0 0 0
0 0 0 0 0 0 0 0 0 6 3 3 6 10 6 6 10 10 3 0 0 6 6 6 6 0 0 0 0 0 0 0 0 0 0 0 0 0 0 0 0 0 0 0 0 0 0 0 0

GEFSSGP_con_cape1000_192.txt.gz
Probability
0 0 0 0 0 0 0 0 0 0 3 6 6 3 3 6 16 29 58 32 29 39 58 71 90 90 87 90 90 90 94 94 94 94 97 97 97 97 94 87 84 74 65 61 55 52 58 48 52
0 0 0 0 0 0 0 0 0 0 13 13 13 13 13 26 35 48 58 45 45 58 71 71 94 94 90 90 90 87 90 90 94 90 87 90 84 81 81 74 65 68 65 52 48 48 45 45 48
0 0 0 0 0 0 0 0 0 10 13 13 13 19 29 42 48 61 68 48 61 58 84 87 94 94 94 94 90 87 87 87 90 90 81 77 81 77 77 74 71 65 55 52 48 48 48 45 45
0 0 0 0 0 0 0 6 10 10 16 10 16 26 39 48 58 58 61 58 61 58 71 87 94 94 94 94 90 87 87 87 84 81 81 81 74 71 68 68 58 55 55 55 52 52 48 48 48
0 0 0 0 0 3 0 6 6 6 19 19 19 29 45 55 65 65 68 61 55 52 55 84 94 94 94 94 90 90 87 84 84 81 77 74 71 71 71 65 58 55 55 52 48 48 48 55 52
0 0 0 0 3 3 0 6 6 10 13 19 16 26 48 58 68 65 68 58 58 55 61 84 90 94 94 94 94 87 84 81 77 74 74 74 71 65 61 55 55 55 55 48 52 45 45 52 52
0 0 0 0 3 3 6 3 10 16 19 23 23 39 52 71 71 71 65 58 58 55 65 77 84 90 90 87 84 81 77 74 74 77 74 65 61 61 61 58 58 55 52 52 45 42 42 45 42
0 0 0 0 3 3 10 13 16 23 29 32 29 39 55 77 77 74 74 74 58 61 71 68 71 77 74 74 81 77 77 74 71 68 58 55 55 58 55 58 55 48 39 32 39 42 42 39 48
0 0 0 0 3 13 13 19 29 39 35 42 52 45 55 71 81 74 74 74 61 65 71 71 71 77 65 61 68 68 68 68 65 65 55 52 42 42 52 42 45 45 39 39 39 39 35 35 42
0 3 3 10 10 10 10 16 26 39 35 39 55 65 65 71 77 65 65 65 61 61 68 71 74 74 61 58 68 65 65 65 61 58 52 52 48 42 35 39 42 39 39 39 39 35 39 32 29
3 3 3 13 13 13 16 13 23 29 29 32 45 52 68 65 68 65 55 55 58 58 65 68 77 71 68 74 68 65 65 61 58 48 52 58 45 42 42 39 39 45 39 35 39 39 35 29 32
6 6 3 16 16 13 16 19 26 26 35 42 48 52 55 58 65 61 61 65 58 55 65 58 68 74 68 74 71 68 65 58 55 58 52 52 55 48 45 45 39 39 35 29 35 35 32 32 32
6 10 6 10 13 13 16 13 16 26 32 42 58 48 45 55 52 61 61 61 58 58 65 65 61 68 74 74 65 52 52 48 55 52 52 52 55 52 42 45 45 39 39 35 39 32 35 42 35
6 10 3 13 13 13 13 10 16 26 29 42 45 45 48 58 58 61 68 61 61 58 55 58 61 61 65 65 61 55 48 55 45 48 55 55 52 55 48 52 52 42 42 29 32 29 39 35 35
6 3 6 10 10 10 10 13 26 29 35 48 45 42 42 48 55 65 65 71 65 61 55 61 58 58 61 52 52 48 42 45 45 45 48 55 52 55 55 48 45 45 39 35 35 29 32 32 32
3 0 3 3 3 16 13 13 23 32 32 35 35 35 45 61 65 68 68 68 68 65 65 65 48 52 58 58 52 39 35 39 42 39 42 48 48 48 48 39 39 39 32 29 29 29 26 32 32
0 0 3 0 3 10 13 10 26 35 32 32 35 35 42 48 52 52 58 68 68 68 65 61 58 52 48 48 52 42 45 35 32 32 39 35 35 32 35 32 39 32 29 23 23 23 23 26 26
0 0 0 0 3 10 10 16 23 32 29 32 35 39 39 48 52 58 61 68 65 61 65 61 55 48 45 42 45 45 39 32 29 32 23 26 26 26 29 26 29 29 29 29 29 29 26 26 19
0 0 0 3 6 6 13 19 23 23 29 32 35 39 35 42 39 58 61 58 61 58 65 58 48 52 52 42 42 42 45 29 26 23 23 19 16 19 23 16 23 23 26 23 23 23 23 19 19
0 0 3 3 6 6 10 19 23 23 26 32 39 35 42 45 48 52 58 58 58 61 58 58 52 48 48 42 42 39 32 29 29 29 23 19 16 23 13 23 23 19 19 13 16 19 19 19 13
0 0 0 3 3 3 6 16 19 19 19 19 23 39 35 45 45 55 52 61 52 61 61 52 52 48 48 45 39 29 29 23 26 29 19 16 16 16 16 13 19 19 19 16 16 19 16 16 13
0 0 0 0 0 0 0 0 13 16 19 23 26 32 35 39 42 45 52 55 58 58 58 55 55 45 45 35 29 29 23 23 23 26 16 16 16 16 16 16 13 13 16 16 16 16 16 16 10
0 0 0 0 0 0 3 0 3 13 19 23 19 23 39 39 52 45 48 55 55 55 52 52 48 39 32 29 35 32 19 16 13 19 19 16 16 16 16 13 13 13 19 16 13 16 13 13 13
0 0 0 0 0 0 0 0 0 13 16 29 26 32 39 32 42 42 45 48 48 52 48 45 42 39 32 29 29 26 23 19 16 13 16 13 16 16 16 16 13 13 16 13 16 13 13 16 13
0 0 0 0 0 0 0 0 0 10 10 23 35 39 35 32 39 39 45 48 39 45 39 32 35 23 19 19 19 19 16 19 19 16 13 10 13 13 16 16 19 19 10 10 10 10 10 10 16
0 0 0 0 0 0 0 0 6 13 10 19 35 32 29 26 29 29 35 39 45 39 39 29 29 19 19 19 19 23 19 16 13 16 13 10 10 13 13 16 16 13 10 6 3 3 3 6 10
0 0 0 0 0 0 0 3 10 13 13 23 32 29 23 29 26 29 26 32 26 26 26 23 16 19 19 19 19 19 16 16 13 13 13 13 13 10 6 6 10 10 10 3 3 3 3 3 6
0 0 0 0 0 0 0 0 3 10 6 10 19 26 26 26 23 23 23 26 29 26 19 23 19 19 19 19 19 16 13 16 13 13 13 13 16 6 10 10 6 6 3 3 3 3 3 3 3
0 0 0 0 0 0 0 0 0 10 13 16 13 13 23 19 19 23 19 23 23 16 16 16 16 19 19 19 19 19 13 16 16 16 10 6 10 6 6 6 3 0 3 3 3 3 3 3 3
0 0 0 0 0 0 0 0 3 16 19 13 13 6 3 6 23 19 13 13 13 10 6 10 13 16 16 16 13 16 19 10 6 6 13 13 3 0 0 3 3 0 0 3 3 0 0 0 0

GEFSSGP_con_cape1000_198.txt.gz
Probability
0 0 0 0 0 0 0 0 0 0 0 0 3 6 23 29 29 52 35 39 58 52 61 90 97 97 90 94 94 90 90 90 94 94 94 94 94 94 87 74 61 55 55 55 45 42 42 35 32
0 0 0 0 0 0 0 0 0 0 0 0 6 10 23 35 32 39 39 52 61 55 65 74 97 94 94 94 94 90 87 87 84 84 87 87 87 81 71 71 58 58 55 42 45 42 35 39 35
0 0 0 0 0 0 0 0 3 3 3 3 6 23 29 35 45 55 61 52 65 61 68 94 94 94 94 94 90 90 87 81 81 81 77 74 68 68 71 68 55 45 42 42 42 29 32 42 45
0 0 0 0 0 0 0 3 3 3 3 3 16 26 32 35 42 45 65 58 68 77 71 90 94 94 94 94 90 87 71 71 74 71 71 68 68 68 65 52 45 39 42 42 42 39 42 35 42
0 0 0 0 0 0 0 3 3 3 6 6 26 35 42 45 48 55 58 58 58 68 68 81 90 94 94 94 94 87 81 74 68 68 68 68 68 65 61 52 45 39 45 45 45 48 42 39 35
0 0 0 0 0 3 3 6 3 3 6 10 32 39 45 48 48 55 52 45 48 68 65 74 94 94 94 94 87 84 81 74 71 68 68 68 65 61 61 55 52 45 42 39 39 42 45 39 39
0 0 0 0 0 0 3 0 3 10 16 19 26 32 48 52 52 48 48 52 45 58 65 71 81 87 87 90 90 84 74 74 71 71 71 65 61 61 58 52 52 45 42 39 35 39 42 42 42
0 0 0 0 0 0 0 0 3 13 19 23 23 32 48 65 55 48 48 52 52 48 71 71 68 77 81 77 84 81 74 71 71 68 61 58 55 52 52 48 55 45 45 32 39 39 39 42 42
0 0 0 0 0 0 3 6 6 10 23 23 26 42 55 58 45 52 55 58 65 61 71 65 71 68 68 65 77 77 71 68 68 65 61 58 58 45 55 48 52 45 45 39 39 39 42 42 39
0 0 0 0 3 0 0 6 10 13 19 26 29 48 52 65 48 55 55 58 65 61 61 55 74 71 71 71 71 71 65 68 68 68 61 68 71 58 35 45 52 48 39 39 39 42 42 39 35
0 0 0 0 3 3 3 6 6 19 23 32 42 45 42 52 65 58 65 68 61 61 71 68 68 65 74 71 74 77 71 71 65 61 61 65 65 58 52 52 48 39 39 35 35 32 32 32 35
3 0 3 3 3 3 6 6 13 23 29 35 29 35 45 52 68 68 71 65 68 68 74 65 71 71 77 77 71 77 74 65 58 61 58 61 58 58 55 55 42 35 35 35 35 35 35 32 32
3 3 3 6 3 3 10 10 13 23 23 26 32 29 45 45 52 68 71 71 74 74 74 77 74 81 81 81 77 74 71 61 58 65 58 58 55 55 55 55 48 42 42 39 39 39 35 42 39
3 3 0 6 6 6 6 13 10 10 16 23 29 35 35 45 52 61 65 71 71 74 71 74 71 74 77 71 71 65 61 68 61 61 58 55 55 52 52 48 45 42 42 35 39 39 35 42 35
3 3 3 3 3 3 3 6 13 16 19 16 26 32 35 45 48 55 68 71 71 71 74 74 68 71 68 65 65 65 58 55 55 52 52 52 48 48 48 45 39 35 35 35 39 39 35 32 32
0 0 3 3 0 3 0 6 16 16 16 16 26 32 26 48 48 45 58 74 74 74 77 74 65 61 61 65 65 61 58 52 52 52 48 48 45 39 42 39 39 39 32 32 35 35 29 32 32
0 0 0 0 0 3 0 6 16 10 13 16 26 23 32 35 45 48 58 71 68 71 68 68 65 61 61 61 61 58 55 52 52 52 52 42 35 32 35 32 32 29 26 29 29 32 29 23 23
0 0 0 0 0 0 0 13 13 13 19 23 23 29 29 32 42 52 58 61 65 68 65 68 68 61 61 58 58 52 52 52 52 45 42 42 32 32 32 29 32 32 32 29 19 23 23 19 19
0 0 0 0 0 0 0 10 10 13 13 13 19 26 29 35 35 42 58 58 61 68 65 68 68 65 58 58 58 52 52 52 42 39 35 35 29 26 29 29 29 26 29 26 26 16 13 10 13
0 0 0 0 0 0 3 3 6 13 13 16 19 26 29 35 35 39 48 58 65 68 68 68 68 61 58 58 52 52 48 42 39 35 32 32 29 29 23 29 29 26 26 19 19 16 6 6 6
0 0 0 0 0 0 3 3 10 13 16 13 16 19 23 35 35 35 42 48 52 61 61 65 65 61 55 52 52 48 45 42 35 32 32 32 32 26 23 23 23 23 23 23 16 16 6 6 6
0 0 0 0 0 0 0 0 13 13 16 10 13 16 19 26 39 35 42 42 45 52 58 61 61 65 58 48 45 45 45 39 39 32 29 29 26 23 23 19 16 19 23 16 16 10 10 10 6
0 0 0 0 0 0 0 0 10 13 13 10 10 16 23 32 39 39 39 42 39 42 48 58 61 65 58 48 45 45 35 32 35 35 23 26 26 23 19 19 16 19 19 19 23 10 10 10 10
0 0 0 0 0 0 0 0 3 10 6 13 13 26 32 39 42 42 39 42 39 42 42 48 55 55 48 45 42 42 32 29 29 26 23 23 26 23 19 16 19 16 19 19 23 13 13 13 10
0 0 0 0 0 0 0 0 6 16 23 23 19 23 29 29 32 35 32 39 45 42 45 48 48 45 45 35 32 32 32 29 32 29 23 19 19 23 19 10 19 16 16 23 16 10 13 13 10
0 0 0 0 0 0 0 0 16 16 23 26 29 26 29 26 26 29 29 35 42 45 42 45 42 42 42 35 35 35 32 29 29 26 26 23 19 16 13 16 16 16 13 10 10 13 10 6 6
0 0 0 0 0 0 0 0 16 26 23 29 29 26 23 23 26 26 32 35 39 42 42 32 29 29 26 29 32 32 29 32 26 26 29 23 19 16 10 16 13 10 13 10 13 6 10 10 10
0 0 0 3 0 0 0 0 10 19 19 23 23 19 23 16 23 23 29 32 39 42 29 32 23 26 26 26 26 23 29 29 29 26 23 19 10 6 6 13 10 10 6 6 10 10 10 6 6
0 0 0 0 0 0 0 0 3 19 16 16 19 16 13 13 13 16 23 29 26 23 26 26 23 19 26 19 19 23 23 29 26 26 23 16 13 10 10 10 6 6 6 3 0 0 3 3 6
0 0 0 0 0 0 0 0 6 13 10 13 16 19 10 10 13 16 19 13 13 16 16 23 19 19 19 13 16 16 19 13 19 16 16 13 13 6 10 6 6 6 6 3 0 0 0 0 6

GEFSSGP_con_cape1000_204.txt.gz
Probability
0 0 0 0 0 0 0 0 0 0 0 3 13 13 19 23 10 13 19 10 29 52 87 90 97 97 97 94 94 94 94 94 94 94 94 97 97 90 87 74 74 74 61 55 52 52 45 39 35
0 0 0 0 0 0 0 0 0 0 3 10 13 16 26 35 39 42 35 26 35 58 68 84 97 97 94 94 94 94 94 94 97 97 94 94 90 87 77 74 65 61 58 52 48 45 39 39 32
0 0 0 0 0 0 0 0 0 3 3 13 19 16 32 42 45 35 32 29 32 55 71 87 97 94 94 94 94 94 94 94 97 94 94 87 84 74 74 74 61 48 52 39 35 32 35 29 26
0 0 0 0 0 0 0 0 3 3 6 13 23 32 23 45 48 42 42 39 32 52 65 94 94 94 94 90 94 94 94 94 90 84 81 77 77 77 71 68 61 52 42 42 35 39 32 29 32
0 0 0 0 0 0 0 0 0 3 13 6 23 35 29 45 48 52 42 35 45 58 68 90 94 94 94 94 94 94 84 84 81 81 81 71 77 77 71 61 55 48 48 42 42 45 45 39 39
0 0 0 0 0 0 0 0 0 10 13 16 29 35 42 45 45 52 45 42 52 58 74 84 90 90 90 94 94 90 87 81 77 77 71 71 77 71 65 58 55 52 52 52 52 55 52 45 42
0 0 0 0 0 0 0 3 3 6 13 13 32 32 35 45 45 39 35 45 52 55 65 74 84 90 90 90 87 84 84 74 74 71 71 77 74 65 65 61 58 52 48 52 48 48 45 45 42
0 0 0 0 0 0 0 0 10 10 13 19 29 32 32 39 42 29 26 32 48 52 52 58 68 68 74 77 81 81 77 74 77 74 74 74 68 65 61 61 61 55 48 45 48 48 45 42 45
0 0 0 0 0 0 0 0 6 16 23 23 32 35 32 35 42 26 26 35 42 48 52 52 61 61 65 71 81 77 74 71 71 68 74 68 48 48 42 45 61 55 52 45 42 39 45 45 42
0 0 0 0 0 0 0 0 13 16 23 26 29 29 35 39 39 32 26 29 32 39 42 48 48 48 55 61 71 68 71 61 58 48 55 48 35 32 35 48 61 61 55 48 42 39 35 35 32
0 0 0 0 3 0 3 6 13 23 23 23 29 26 42 39 42 35 35 32 32 32 35 42 48 48 48 39 58 55 48 52 48 35 39 35 26 16 23 19 35 42 42 35 35 35 35 29 26
0 0 3 0 0 3 6 16 19 19 19 32 39 39 39 42 48 45 42 35 26 32 39 42 45 39 32 32 35 39 42 39 42 39 35 19 19 26 19 13 13 29 29 23 23 23 23 23 23
3 3 0 0 0 3 10 16 16 16 19 32 35 32 32 45 35 42 42 32 45 48 48 39 45 39 39 35 29 29 26 26 23 29 29 23 26 26 16 19 16 23 23 19 19 16 16 16 13
0 0 0 0 0 6 10 13 13 10 13 26 26 29 32 29 35 39 35 39 35 42 45 48 35 39 35 29 32 32 26 26 23 32 26 23 23 19 16 16 16 16 16 6 6 6 3 6 0
0 0 0 0 0 3 3 6 6 10 10 19 26 29 29 32 29 32 32 42 39 45 39 32 32 35 39 32 32 32 29 23 23 29 26 23 23 16 16 16 10 10 6 3 0 0 0 0 0
0 0 0 0 0 3 3 6 3 3 10 16 26 23 26 26 35 32 32 39 39 39 39 35 45 39 39 32 32 32 29 26 19 29 26 29 23 16 13 10 10 3 3 3 3 0 0 0 0
0 0 0 0 0 0 3 6 6 0 10 13 23 16 16 16 26 29 35 45 42 42 45 48 42 42 39 39 29 32 29 19 26 26 23 23 23 19 19 16 6 3 3 3 3 3 0 0 0
0 0 0 0 0 3 6 6 10 6 3 10 13 10 10 19 23 26 26 32 35 39 45 42 39 39 39 42 42 32 26 26 26 16 23 23 23 23 16 6 10 6 6 3 3 3 0 0 0
0 0 0 0 0 0 6 10 10 3 6 10 6 10 6 13 19 23 19 26 35 39 39 35 32 35 35 39 39 35 32 29 19 23 23 19 16 16 13 10 3 3 6 3 0 0 0 0 0
0 0 0 0 0 3 3 6 6 3 6 10 10 13 13 16 16 19 26 26 32 32 32 32 32 35 35 32 32 32 26 23 23 16 16 23 13 13 13 3 3 0 0 0 0 0 0 0 3
0 0 0 0 3 3 3 3 6 6 0 6 6 13 16 10 13 19 23 26 29 32 32 32 32 32 35 29 26 29 23 16 16 10 13 10 6 6 6 3 3 0 0 0 0 0 3 3 0
0 0 0 0 0 0 0 0 3 3 0 0 6 10 13 13 13 19 19 19 26 29 29 32 29 32 26 26 23 29 26 19 10 10 10 10 10 6 3 3 3 0 0 0 0 3 3 3 0
0 0 0 0 0 0 0 0 0 3 3 0 6 10 10 6 6 10 19 19 23 26 26 32 32 29 29 29 23 19 16 10 10 3 6 6 6 3 3 3 3 0 0 0 3 0 3 0 0
0 0 0 0 0 0 0 0 0 3 3 3 10 16 6 10 6 13 16 19 26 26 26 29 26 26 23 19 10 10 3 0 3 0 0 0 0 0 0 0 3 0 0 0 0 0 0 0 0
0 0 0 0 0 0 0 0 3 6 10 3 6 10 10 10 6 10 13 16 16 23 26 23 16 13 13 13 6 3 3 0 0 3 3 3 0 0 0 0 0 0 0 0 0 0 0 0 0
0 0 0 0 0 0 0 3 3 6 6 3 3 10 10 10 6 13 13 13 16 23 19 16 13 16 10 10 13 6 3 0 0 0 0 3 3 3 0 0 0 0 0 0 0 0 0 0 0
0 0 0 0 0 0 0 0 6 0 3 6 6 6 10 10 6 6 0 6 10 13 13 13 10 10 10 10 13 10 6 0 0 0 0 0 3 3 0 0 0 0 0 0 0 0 0 0 0
0 0 0 0 0 0 0 0 0 0 0 3 3 0 0 3 3 0 3 0 3 3 3 3 3 3 3 6 6 3 0 0 0 0 0 0 0 0 3 0 0 0 0 0 0 0 0 0 0
0 0 0 0 0 0 0 0 0 0 0 0 0 0 0 3 0 0 0 0 0 0 0 0 0 3 3 3 0 0 0 0 0 0 0 0 0 0 0 0 0 0 0 0 0 0 0 0 0
0 0 0 0 0 0 0 0 0 0 0 0 0 0 0 0 0 0 0 0 0 0 0 0 0 0 0 0 0 0 0 0 0 0 0 0 0 0 0 0 0 0 0 0 0 0 0 0 0

GEFSSGP_con_cape1000_210.txt.gz
Probability
0 0 0 0 0 0 0 0 0 0 0 3 6 13 6 6 6 6 0 3 32 45 77 90 94 94 94 94 90 94 94 94 94 94 94 94 90 87 87 81 74 74 68 65 58 58 55 55 52
0 0 0 0 0 0 0 0 0 0 0 3 3 16 13 13 26 13 6 23 35 55 71 87 94 94 94 90 94 94 90 94 90 90 90 87 81 81 81 74 74 74 61 58 58 48 42 48 45
0 0 0 0 0 0 0 0 0 3 3 3 6 19 26 23 39 32 23 29 45 61 61 81 94 97 94 94 94 87 87 90 90 87 87 84 81 81 81 77 74 68 65 61 55 48 48 39 39
0 0 0 0 0 0 0 0 0 3 3 6 10 29 32 39 45 35 42 35 52 61 71 77 90 90 90 87 87 90 90 87 84 87 87 81 81 81 81 74 71 65 65 65 52 48 45 35 35
0 0 0 0 0 0 0 0 0 3 3 10 16 13 29 39 45 42 39 42 45 48 61 71 90 90 87 87 87 87 84 84 84 81 81 81 81 84 81 77 68 65 58 55 48 45 45 39 39
0 0 0 0 0 0 0 0 0 6 3 19 19 13 23 32 45 45 35 39 45 48 55 68 87 87 87 87 87 84 77 77 77 81 81 84 81 84 74 74 65 61 58 55 52 52 52 52 45
0 0 0 0 0 0 0 0 0 3 3 16 19 19 23 32 45 42 32 29 39 42 58 65 74 81 87 84 77 77 77 77 77 74 71 71 81 74 68 68 61 55 58 52 52 52 52 52 48
0 0 0 0 0 0 0 0 3 3 6 16 16 23 23 29 39 42 39 32 45 48 45 55 61 68 68 74 77 77 77 74 71 71 68 71 71 65 52 61 55 55 55 55 55 55 48 48 45
0 0 0 0 0 0 0 0 3 6 13 26 26 26 29 42 45 39 42 42 39 35 39 45 52 58 65 65 71 74 74 71 68 68 65 65 48 45 45 48 58 58 58 58 48 48 48 48 39
0 0 0 0 0 0 0 0 10 3 13 26 32 39 32 42 42 35 35 39 42 39 39 39 45 48 48 65 65 58 65 61 65 61 55 42 39 35 42 45 48 52 52 52 52 45 45 39 29
0 0 0 0 0 0 0 6 6 6 16 19 35 48 42 39 39 35 35 29 42 42 45 42 42 42 45 45 39 35 35 29 35 42 35 35 26 19 29 26 29 32 39 35 35 35 32 29 29
0 0 0 0 0 0 3 3 10 13 19 23 26 39 45 52 42 35 35 35 32 42 45 42 42 42 39 35 32 32 26 26 29 35 32 26 19 16 19 16 16 16 16 19 23 26 19 19 23
3 0 0 6 3 0 10 13 16 19 16 23 32 42 42 35 32 32 32 35 39 39 39 35 35 39 35 35 29 23 23 23 23 26 19 19 23 16 13 13 13 10 13 16 19 19 16 16 19
3 0 0 3 3 6 10 13 19 16 16 19 23 23 32 29 26 26 23 26 32 32 26 29 29 29 26 29 23 23 19 19 19 23 19 23 19 6 6 6 10 6 10 13 10 6 10 10 6
0 0 0 3 3 10 10 13 13 13 13 23 19 19 19 19 19 23 19 29 29 26 26 29 29 23 16 19 19 19 23 19 23 23 16 16 16 10 13 10 10 6 10 6 6 6 3 3 3
0 0 0 0 0 10 3 3 6 10 13 16 16 19 13 3 13 16 19 16 19 29 32 29 32 19 16 16 16 19 23 23 23 23 19 13 13 10 6 6 6 10 10 6 3 3 3 3 3
0 0 0 0 0 6 3 3 6 6 13 13 13 10 6 10 6 6 16 19 13 16 19 26 26 26 16 19 16 19 16 19 16 16 16 19 16 13 6 10 10 10 6 3 3 0 0 0 0
0 0 0 0 0 3 3 3 10 10 3 10 10 6 6 10 6 10 6 6 10 10 13 23 26 23 23 16 19 19 13 10 16 19 19 16 16 13 13 13 10 3 3 0 0 0 0 0 0
0 0 0 0 0 3 3 3 6 6 6 10 10 6 6 3 16 13 13 10 10 13 13 19 16 16 13 19 16 13 16 10 10 16 16 13 13 13 13 13 6 3 3 0 0 0 0 0 0
0 0 0 0 0 6 3 3 3 3 3 6 10 10 6 10 16 13 16 10 13 10 13 10 10 10 10 13 13 6 6 6 6 6 10 10 10 10 16 6 3 3 3 0 0 0 0 0 0
0 0 0 0 3 3 6 3 3 3 0 3 10 10 6 13 13 13 16 13 13 10 6 6 10 10 10 10 6 10 10 10 6 3 3 3 3 6 6 6 3 0 3 0 0 0 0 0 0
0 0 0 0 0 0 0 0 3 3 0 0 6 6 6 6 10 10 10 10 10 10 3 6 10 13 10 13 13 13 10 10 6 3 3 0 0 0 0 6 3 0 3 0 0 0 0 0 0
0 0 0 0 0 0 0 0 0 0 0 0 0 10 6 6 6 3 0 0 6 10 10 6 6 6 6 6 13 10 6 6 3 0 0 0 0 0 0 0 0 0 0 0 0 0 0 0 0
0 0 0 0 0 0 0 0 0 0 0 0 0 3 6 6 10 3 0 6 6 3 3 10 6 6 6 6 6 6 3 0 0 0 0 0 0 0 0 0 0 0 0 0 0 0 0 0 0
0 0 0 0 0 0 0 0 0 3 3 0 3 3 6 6 3 6 6 13 13 10 6 3 3 6 6 6 6 6 3 0 0 0 0 0 0 0 0 0 0 0 0 0 0 0 0 0 0
0 0 0 0 0 0 0 0 0 0 0 0 0 3 3 6 0 3 6 6 6 3 3 6 6 6 6 6 6 3 0 0 0 0 0 0 0 0 0 0 0 0 0 0 0 0 0 0 0
0 0 0 0 0 0 0 0 0 0 0 0 0 0 6 6 0 0 0 0 3 3 3 3 3 3 0 0 3 0 0 0 0 0 0 0 0 0 0 0 0 0 0 0 0 0 0 0 0
0 0 0 0 0 0 0 0 0 0 0 0 0 0 0 0 0 0 0 0 0 3 3 0 0 0 0 0 0 0 0 0 0 0 0 0 0 0 0 0 0 0 0 0 0 0 0 0 0
0 0 0 0 0 0 0 0 0 0 0 0 0 0 0 0 0 0 0 0 0 0 0 0 0 0 0 0 0 0 0 0 0 0 0 0 0 0 0 0 0 0 0 0 0 0 0 0 0
0 0 0 0 0 0 0 0 0 0 0 0 0 0 0 0 0 0 0 0 0 0 0 0 0 0 0 0 0 0 0 0 0 0 0 0 0 0 0 0 0 0 0 0 0 0 0 0 0

GEFSSGP_con_cape1000_216.txt.gz
Probability
0 0 0 0 0 0 0 0 0 0 0 0 0 0 0 6 6 19 42 39 48 55 68 77 90 94 94 94 94 90 90 87 90 87 87 87 84 84 81 81 81 74 71 68 61 65 61 58 55
0 0 0 0 0 0 0 0 0 0 3 3 0 6 6 16 23 32 48 52 58 65 65 71 87 90 90 94 90 87 84 87 90 87 87 84 84 81 81 81 77 74 71 65 52 58 58 52 52
0 0 0 0 0 0 0 0 0 0 3 10 6 16 19 29 35 45 61 65 71 71 74 87 94 94 94 90 90 81 81 84 87 87 84 84 81 77 77 77 77 71 65 61 55 55 55 52 52
0 0 0 0 0 0 0 0 0 0 6 13 13 16 29 39 48 55 61 74 68 68 65 81 94 94 90 87 81 81 77 74 74 77 74 84 81 77 77 77 74 68 68 58 55 52 48 45 39
0 0 0 0 0 0 0 3 3 0 6 6 16 16 32 48 65 71 65 65 61 52 55 71 94 90 90 84 81 74 74 74 74 74 74 74 81 84 81 77 74 71 65 48 45 42 39 42 42
0 0 0 0 0 0 0 3 6 10 6 10 13 16 42 61 71 71 65 61 55 52 58 74 84 81 81 81 81 74 74 74 74 74 74 74 74 74 71 74 68 68 52 48 42 48 52 52 45
0 0 0 0 0 0 0 3 10 13 13 10 16 16 42 55 68 68 61 61 58 55 61 65 65 68 74 81 81 77 74 74 74 71 71 71 71 65 65 61 58 58 48 52 48 52 52 42 39
0 0 0 0 0 3 3 3 10 16 16 19 19 16 39 45 65 65 55 48 52 48 58 58 65 65 65 71 74 71 74 74 71 68 68 65 65 61 61 61 61 52 48 52 52 48 48 42 39
0 0 0 0 0 3 3 3 10 16 16 32 35 32 35 42 61 58 61 61 58 58 61 65 55 61 61 58 58 65 71 71 68 68 65 65 52 39 55 42 55 48 45 42 42 42 45 42 39
0 0 0 3 6 3 3 6 10 13 16 39 35 29 35 39 45 52 58 61 55 58 55 65 58 58 55 48 61 68 58 65 61 55 58 61 55 52 29 39 45 42 42 42 39 39 39 42 35
3 3 3 6 6 0 0 6 10 19 23 26 29 35 39 39 48 48 55 55 58 55 55 52 52 48 45 55 61 68 71 74 65 68 65 61 58 52 32 45 48 42 42 39 39 39 39 29 39
6 6 3 3 6 10 3 13 16 23 23 26 26 29 29 32 45 48 48 55 61 55 48 42 52 55 58 58 68 71 68 71 61 61 58 61 61 52 48 55 39 45 42 42 39 39 29 29 29
3 3 6 3 3 10 10 13 13 23 19 26 26 29 26 32 35 45 48 48 52 48 48 45 55 58 61 61 58 55 68 61 68 68 65 68 58 52 45 55 48 39 32 29 32 29 23 23 26
0 3 6 3 6 6 10 10 13 13 19 29 26 32 32 39 42 48 48 48 48 48 48 45 48 55 58 58 58 58 55 55 52 55 52 52 52 48 52 48 45 39 35 32 32 26 32 32 32
0 0 3 3 6 6 6 3 10 13 23 26 29 32 35 52 45 42 48 55 55 52 45 45 52 52 58 52 52 52 52 52 45 48 48 48 42 42 45 39 45 39 39 39 32 32 32 32 29
0 0 0 0 0 0 3 0 13 16 23 29 29 29 35 48 48 45 45 48 48 48 48 42 39 48 48 55 55 55 52 39 42 35 35 39 39 39 45 42 39 39 39 39 35 32 32 26 26
0 0 0 0 0 0 0 6 13 19 29 32 23 26 32 42 45 42 42 42 42 48 52 45 45 42 42 39 42 39 42 35 32 29 35 39 39 35 45 42 42 39 35 35 29 32 32 29 26
0 0 0 0 0 0 0 6 13 19 23 29 26 32 32 35 35 35 32 39 42 42 45 32 35 32 39 35 35 35 35 35 32 35 35 39 45 39 39 42 42 35 29 32 32 32 32 26 23
0 0 0 0 0 0 0 6 13 19 23 23 29 32 32 35 35 32 29 32 35 35 35 39 35 35 35 35 35 35 35 29 32 32 32 35 35 35 35 26 39 35 35 32 29 26 26 19 23
0 0 0 0 3 0 6 16 19 23 19 29 29 26 23 26 29 35 35 32 29 29 26 39 35 32 29 35 32 39 35 32 32 32 32 29 29 29 29 29 26 26 26 29 29 26 16 16 19
0 0 0 0 3 3 6 10 23 23 23 26 29 26 23 19 26 29 26 26 29 29 23 19 26 29 29 32 29 23 29 29 29 26 26 26 26 26 26 23 23 23 19 19 26 26 19 19 13
0 0 0 0 0 0 0 0 6 16 26 26 32 29 26 23 23 23 26 29 29 23 19 19 29 29 26 29 26 23 26 29 23 19 26 19 23 26 26 26 23 23 19 23 26 19 16 10 13
0 0 0 0 0 0 0 0 3 6 13 23 29 26 23 23 23 23 26 29 32 23 23 23 26 26 26 26 26 35 32 32 26 23 19 16 23 32 26 19 23 23 16 16 13 10 10 10 10
0 0 0 0 0 0 0 0 0 0 6 16 19 26 26 19 19 19 26 29 26 19 16 16 23 23 23 19 19 19 23 26 23 23 23 19 23 26 23 16 10 13 13 13 10 10 6 13 10
0 0 0 0 0 0 0 0 0 10 3 10 16 19 16 23 19 23 23 29 26 19 16 19 19 26 23 23 16 19 19 13 23 23 23 23 16 16 23 16 16 13 13 10 10 10 6 6 6
0 0 0 0 0 0 0 0 3 6 6 6 16 19 10 16 19 19 23 26 23 19 6 10 13 16 19 19 16 10 13 13 13 19 13 13 10 10 16 19 19 10 3 6 10 13 3 3 3
0 0 0 0 0 0 0 0 0 3 6 10 16 16 13 10 13 16 16 13 13 13 13 13 13 13 13 16 13 13 10 10 10 10 13 3 13 3 6 13 10 6 6 6 6 6 6 3 3
0 0 0 0 0 0 0 0 0 6 6 10 16 16 13 10 13 13 10 10 10 10 10 13 13 13 13 10 13 13 13 10 10 3 6 6 13 0 6 6 6 6 10 6 3 0 3 3 3
0 0 0 0 0 0 0 0 0 0 3 3 6 13 10 6 10 10 10 13 10 10 10 10 6 6 10 10 6 6 6 6 6 6 3 6 6 6 6 10 3 6 6 6 3 3 3 3 3
0 0 0 0 0 0 0 0 0 0 3 6 6 10 6 3 10 6 10 6 3 6 3 3 3 3 3 3 6 6 6 6 6 6 3 6 6 6 6 0 0 0 3 3 3 3 3 3 3

GEFSSGP_con_cape1000_222.txt.gz
Probability
0 0 0 0 0 0 0 0 0 0 0 0 3 3 13 23 19 35 42 39 48 68 65 87 90 90 90 87 87 87 84 87 87 87 84 87 84 81 81 77 74 71 58 58 58 52 45 45 45
0 0 0 0 0 0 0 0 3 3 3 0 3 10 23 29 26 32 48 55 61 71 74 77 90 90 94 90 87 84 84 84 81 81 81 77 81 81 74 74 71 68 65 61 55 48 48 52 45
0 0 0 0 0 0 0 3 3 3 6 3 3 23 29 29 39 42 55 55 65 77 84 90 90 94 90 90 84 81 81 81 81 77 77 77 81 74 74 71 68 61 61 61 52 52 52 52 45
0 0 0 0 0 0 0 3 3 6 3 10 13 26 39 35 39 45 55 55 65 74 81 84 94 90 90 90 87 87 87 87 81 81 81 74 74 71 74 68 61 65 61 58 55 48 39 52 45
0 0 0 0 0 0 3 3 3 3 3 10 19 32 35 32 35 45 58 55 55 58 74 77 84 87 87 87 84 81 81 77 77 77 74 74 74 74 74 68 65 65 61 52 48 45 55 52 45
0 0 0 0 0 0 0 3 0 0 0 6 13 23 32 39 39 45 55 52 52 61 68 77 84 87 90 81 84 77 74 74 74 74 74 71 71 71 71 65 61 61 52 55 55 61 58 58 45
0 0 0 0 0 0 0 3 0 6 6 6 16 26 32 42 42 45 48 45 45 61 65 77 81 84 87 84 77 74 74 71 71 71 71 71 71 71 68 65 58 58 52 55 48 52 55 48 58
0 0 0 0 0 0 0 6 3 3 10 10 13 23 35 45 39 39 48 48 55 65 61 61 61 71 74 74 71 74 71 74 71 71 71 71 71 68 65 61 55 55 52 52 52 52 55 52 45
0 0 0 0 0 0 0 3 6 13 16 13 23 32 42 45 42 42 42 52 55 52 61 58 58 65 65 58 68 68 68 68 65 65 71 68 68 58 65 55 65 58 48 48 48 52 45 42 45
0 0 0 0 0 0 0 6 6 10 16 16 26 39 39 35 42 45 42 52 52 55 48 52 52 58 58 55 68 68 61 65 61 61 65 65 68 68 48 61 61 58 55 52 48 45 45 42 39
0 0 0 0 0 0 3 6 10 13 16 23 29 39 35 39 39 39 39 42 52 48 48 52 55 58 55 55 58 65 61 68 61 65 65 65 71 65 55 58 65 58 52 45 42 42 42 42 39
0 0 0 0 0 0 3 10 10 19 19 26 29 35 39 42 39 35 39 42 52 55 52 45 55 58 55 52 58 61 58 55 52 61 61 61 61 65 55 61 58 55 52 48 45 45 42 42 35
0 0 0 0 0 3 6 13 16 19 16 23 29 35 39 35 42 39 45 42 52 55 55 55 58 65 68 61 61 58 61 61 61 61 58 65 65 65 61 65 55 55 52 52 52 45 45 35 29
0 0 0 0 3 6 6 6 16 19 19 16 23 29 26 29 35 42 42 45 55 55 48 55 55 61 58 65 61 61 55 58 61 61 55 55 58 58 58 55 58 52 52 48 45 45 45 39 42
0 0 0 0 0 0 0 3 6 13 19 19 19 23 19 32 35 39 35 48 48 52 52 52 55 58 61 55 55 52 52 52 52 52 52 55 58 58 55 55 52 45 39 45 45 42 45 39 39
0 0 0 0 0 0 3 3 13 13 16 19 23 26 19 35 35 39 35 45 45 48 48 45 45 45 48 52 48 52 45 45 48 48 48 45 48 48 52 48 39 45 42 45 42 35 35 35 35
0 0 0 0 3 3 3 3 6 13 16 19 19 23 19 32 35 29 35 45 45 45 48 42 45 42 42 45 45 48 45 48 42 42 42 42 42 42 35 32 32 39 39 35 35 35 32 29 23
0 0 0 0 0 3 3 6 6 3 10 16 19 19 26 29 29 26 32 39 39 45 45 42 45 42 39 42 42 52 48 48 42 42 42 42 39 32 39 29 29 39 35 35 39 32 29 32 26
0 0 0 0 3 3 3 3 3 3 10 16 19 26 26 26 29 26 32 35 42 45 45 48 45 48 48 42 45 42 45 48 42 39 39 39 39 35 32 29 32 29 29 26 29 26 23 19 23
0 0 0 3 3 3 3 3 3 6 13 19 26 32 29 26 32 35 42 35 35 48 45 48 48 45 48 42 42 39 35 39 35 35 32 26 29 29 23 32 35 32 32 29 26 26 13 13 16
0 0 0 0 3 0 3 3 10 16 19 16 19 26 26 32 39 42 39 39 35 39 35 32 48 45 42 42 35 29 32 32 32 32 26 29 29 19 26 19 23 29 26 26 23 16 13 13 10
0 0 0 0 3 3 0 0 6 13 19 23 26 29 29 26 32 35 35 42 42 39 35 42 45 45 42 35 29 29 29 19 16 19 19 23 23 19 19 23 19 23 26 23 19 16 16 13 13
0 0 0 0 0 0 0 0 3 10 16 19 23 26 29 26 29 29 32 35 32 32 29 39 42 42 42 35 23 26 23 19 23 19 23 19 19 19 19 23 29 26 26 23 16 10 10 13 10
0 0 0 0 0 0 0 0 3 3 6 13 16 19 29 26 23 26 29 32 32 29 26 26 32 39 32 29 19 19 19 19 16 16 16 16 16 13 16 19 23 29 26 13 13 13 13 13 13
0 0 0 0 0 0 0 0 3 3 10 13 13 23 26 29 32 29 23 26 29 29 26 26 29 29 29 23 19 19 16 16 19 13 13 16 13 16 16 13 26 26 23 19 16 13 10 6 6
0 0 0 0 0 0 0 3 10 10 13 16 19 19 23 29 29 26 26 26 29 29 29 23 23 23 23 19 16 23 23 13 13 13 10 13 23 19 19 19 19 19 16 13 16 13 10 6 6
0 0 0 0 0 0 0 6 10 10 13 13 16 16 23 23 23 23 19 19 23 23 23 23 26 19 16 16 16 19 19 16 13 16 16 19 19 16 16 16 16 26 16 16 13 13 10 6 10
0 0 0 0 0 0 0 0 10 10 13 10 10 10 13 16 19 16 19 19 16 19 23 19 19 23 16 16 13 13 13 13 16 19 23 23 19 13 13 13 13 23 16 13 16 10 13 13 13
0 0 0 0 0 0 0 0 10 13 10 6 10 13 16 16 13 13 13 13 16 16 19 16 19 13 13 10 13 13 10 10 10 16 16 16 16 16 16 10 10 13 13 16 13 10 13 3 0
0 0 0 0 0 0 0 3 10 13 13 10 6 10 13 16 10 13 13 13 10 10 10 10 6 6 6 6 10 6 10 13 13 10 10 13 13 10 6 6 6 10 10 13 10 3 3 0 3

GEFSSGP_con_cape1000_228.txt.gz
Probability
0 0 0 0 0 0 0 0 0 0 3 6 6 10 10 16 10 10 26 39 45 68 84 90 90 90 90 87 87 87 87 87 87 87 87 84 87 84 77 77 74 74 71 68 68 65 55 48 52
0 0 0 0 0 0 0 0 0 0 6 10 6 16 19 32 45 35 42 42 55 65 81 81 87 90 90 90 87 87 87 87 84 81 84 84 81 81 77 77 74 71 71 68 65 61 48 52 48
0 0 0 0 0 0 0 0 0 6 10 13 13 16 16 35 48 45 39 42 52 61 71 84 84 84 84 87 90 90 87 84 81 84 84 84 84 81 74 71 71 68 68 65 65 61 58 55 52
0 0 0 0 0 0 0 0 0 3 6 13 16 19 16 32 45 45 48 42 52 61 74 84 84 84 84 84 84 90 84 84 81 81 74 81 81 81 77 77 68 65 65 61 61 68 61 61 52
0 0 0 0 3 0 0 0 0 3 6 13 19 26 32 39 42 45 48 45 48 58 74 84 84 84 84 84 81 81 84 77 77 77 77 77 74 74 74 68 65 61 58 68 68 68 65 61 58
0 0 0 0 3 0 0 0 3 3 3 16 19 26 29 42 42 45 58 55 61 58 74 77 84 84 84 84 84 81 77 74 71 74 74 74 74 74 74 68 68 65 61 65 65 65 68 61 58
0 0 0 0 0 0 0 0 0 6 6 16 23 29 29 42 39 42 42 48 55 61 71 74 77 77 84 84 84 77 71 71 71 71 74 74 74 74 71 71 68 65 61 61 55 52 61 58 58
0 0 0 0 0 0 3 3 3 3 19 26 29 26 32 29 29 39 42 39 42 45 52 58 61 71 71 74 74 68 71 71 71 71 71 71 71 65 65 68 68 61 55 52 48 52 58 52 58
0 0 0 0 0 0 3 0 3 10 16 23 23 26 32 29 32 32 35 32 35 35 39 39 48 45 55 65 65 68 68 68 68 68 68 68 58 61 61 61 61 58 58 55 58 52 55 52 52
0 0 0 0 0 0 0 3 3 16 16 23 23 29 26 29 35 29 26 23 29 35 35 29 29 35 39 42 52 58 58 61 58 55 55 52 45 35 48 48 61 61 61 58 58 55 52 48 42
0 0 0 0 0 0 3 3 10 16 19 19 26 32 32 29 26 26 29 19 26 26 32 23 26 23 29 35 45 42 42 48 45 45 39 32 32 32 39 29 45 48 55 45 52 52 42 39 35
0 0 0 0 0 3 3 3 16 23 26 23 26 26 23 29 26 16 19 19 19 23 32 26 26 23 29 32 39 39 39 35 39 35 32 32 32 29 26 16 23 26 26 23 23 23 26 26 26
0 0 0 0 3 3 6 6 13 16 19 23 23 19 19 19 16 23 19 23 23 23 29 26 26 23 19 26 32 32 35 35 26 23 29 29 29 23 19 19 19 19 23 19 16 19 19 23 19
0 0 0 0 0 3 6 3 6 10 16 16 19 23 26 19 23 26 23 13 16 19 19 19 13 16 19 23 23 26 19 16 23 26 26 26 26 23 23 19 26 23 16 16 19 23 19 16 13
0 0 0 0 0 0 3 3 6 13 16 13 26 23 23 13 16 19 16 16 16 16 16 13 13 13 10 13 19 23 23 23 23 23 19 16 13 16 23 19 23 16 19 19 16 19 10 10 10
0 0 0 0 0 0 3 3 0 10 13 13 13 23 16 19 16 16 16 19 13 16 19 16 23 13 10 10 13 16 19 23 23 19 19 13 10 13 16 19 19 13 10 10 6 6 6 6 3
0 0 0 0 0 0 0 0 0 10 10 10 10 16 19 23 16 13 16 16 13 10 10 10 13 16 16 10 16 19 19 19 19 13 13 10 10 13 13 16 19 13 10 3 3 3 3 3 3
0 0 0 0 0 0 0 3 3 3 13 6 3 13 13 19 16 19 19 16 16 13 6 6 3 13 16 16 13 13 16 16 13 10 13 10 10 13 10 13 13 10 10 6 3 3 3 3 3
0 0 0 0 0 0 3 3 3 3 3 0 0 10 13 13 19 13 19 16 16 10 10 10 10 13 16 16 16 10 10 13 13 13 10 10 10 6 6 10 10 10 13 3 3 3 3 3 0
0 0 0 0 0 0 3 3 0 3 0 0 0 6 10 10 16 13 23 26 16 13 10 10 13 13 16 16 13 13 16 13 13 13 13 13 6 6 6 10 10 10 6 6 3 3 3 0 0
0 0 0 0 0 0 0 0 0 0 0 0 0 6 10 16 23 19 19 23 23 16 13 13 10 10 10 13 13 16 6 6 6 6 13 10 10 10 10 10 10 10 6 6 3 0 0 0 0
0 0 0 0 0 0 0 0 0 0 0 3 3 3 10 13 16 19 19 23 23 23 13 13 16 13 16 16 13 10 13 13 6 3 3 6 6 10 10 10 10 10 6 0 0 0 0 0 0
0 0 0 0 0 0 0 0 0 0 0 3 6 6 13 10 10 16 23 26 16 19 19 13 13 13 13 13 10 10 10 6 6 6 6 3 6 6 10 6 6 6 3 0 0 0 0 0 0
0 0 0 0 0 0 0 0 0 0 0 6 6 10 6 3 10 10 10 16 16 16 13 10 10 6 6 3 3 6 3 6 6 6 6 3 6 6 6 6 6 6 3 0 0 0 0 0 0
0 0 0 0 0 0 0 0 0 0 3 3 10 6 3 3 10 10 10 6 13 10 13 10 10 10 3 3 3 6 3 3 6 3 3 3 6 6 6 6 6 3 3 3 0 0 0 0 0
0 0 0 0 0 0 0 0 3 3 0 3 6 6 6 3 10 6 10 6 6 10 13 10 3 3 3 3 3 3 3 3 3 0 0 0 3 3 3 3 6 3 3 3 0 0 0 0 0
0 0 0 0 0 0 0 3 3 3 3 6 6 6 6 10 10 6 6 6 10 10 10 6 6 3 3 3 3 3 6 6 3 3 0 0 3 3 3 0 0 0 3 3 3 3 0 0 0
0 0 0 0 0 0 0 3 3 3 3 3 6 3 0 6 3 3 3 6 10 10 6 3 3 3 3 3 3 6 3 3 3 3 3 3 3 3 3 0 0 0 0 0 3 3 0 0 0
0 0 0 0 0 0 0 0 3 3 3 3 0 3 0 3 3 3 3 6 6 0 3 3 3 3 3 3 3 3 3 3 3 3 3 6 3 0 0 0 0 0 0 0 0 0 0 0 0
0 0 0 0 0 0 0 0 0 3 3 3 0 0 0 3 6 6 6 3 3 3 0 0 0 0 3 3 3 3 3 3 3 3 3 3 3 3 0 0 0 0 0 0 0 0 0 0 0

GEFSSGP_con_cape1000_234.txt.gz
Probability
0 0 0 0 0 0 0 0 0 3 3 3 3 0 0 3 3 0 3 19 45 61 77 84 87 87 87 87 87 87 87 90 90 90 90 90 87 84 81 81 74 74 74 74 71 68 65 61 68
0 0 0 0 0 0 0 0 0 3 6 3 13 16 26 26 23 16 19 35 55 65 77 84 84 84 87 87 87 87 87 87 90 87 90 87 84 81 77 74 74 74 71 71 71 65 65 61 58
0 0 0 0 0 0 0 0 0 3 0 3 10 13 26 29 35 32 19 39 61 71 77 84 84 84 84 84 87 87 84 84 81 81 81 81 74 74 74 74 74 74 74 71 68 68 65 65 61
0 0 0 0 0 0 0 0 0 3 0 3 19 19 19 29 39 32 32 48 55 65 74 81 84 84 81 81 81 81 84 81 74 74 81 81 81 74 74 71 71 74 71 65 68 65 65 68 65
0 0 0 0 0 0 0 0 0 3 6 13 16 16 16 29 39 23 35 42 48 55 61 71 81 81 81 81 81 81 77 77 74 74 74 74 74 77 74 68 68 65 68 68 65 65 68 71 65
0 0 0 0 0 0 0 0 0 3 6 19 16 19 26 29 29 26 32 32 48 52 58 65 74 77 81 81 81 81 81 77 74 74 71 71 74 74 74 74 74 71 65 61 61 68 68 65 68
0 0 0 0 0 0 0 0 0 6 16 19 19 23 26 29 26 35 39 39 45 48 55 61 71 71 74 77 77 77 77 74 71 74 71 71 68 68 65 68 65 65 61 58 58 58 65 61 58
0 0 0 0 0 0 0 0 6 10 13 16 19 23 32 32 32 35 39 39 39 45 48 48 65 65 71 71 68 68 71 71 71 68 65 65 68 65 65 65 68 61 55 52 58 55 48 55 55
0 0 0 0 0 0 0 0 3 3 10 16 26 26 32 35 35 35 39 32 39 39 42 35 45 52 55 61 61 61 61 65 61 61 61 58 52 55 55 55 68 61 61 55 52 52 48 48 48
0 0 0 0 0 0 0 0 6 10 13 23 26 32 35 32 32 35 29 32 39 32 35 32 32 39 42 48 45 45 45 52 52 55 52 48 39 39 39 52 52 52 58 55 52 48 45 45 42
0 0 0 0 0 0 0 0 6 10 16 19 26 32 35 32 35 32 26 23 26 26 26 29 26 26 32 26 32 39 39 35 42 45 39 32 32 26 32 26 32 32 35 32 35 32 35 29 32
0 0 0 0 0 0 3 3 10 16 16 23 23 29 35 39 32 29 19 19 23 19 19 23 29 23 19 19 29 35 29 32 32 29 29 26 23 23 23 23 19 23 29 26 26 23 23 23 19
0 0 0 0 0 3 10 10 10 13 19 23 26 29 29 26 23 19 19 13 19 16 16 19 16 16 16 16 13 26 23 26 23 19 19 23 23 13 13 16 13 13 16 19 23 19 16 16 16
0 0 0 0 0 3 10 3 6 13 16 23 23 26 26 26 23 19 16 16 19 19 19 23 13 13 13 13 10 10 19 19 19 16 19 16 16 13 10 10 10 10 6 10 10 13 13 13 16
0 0 0 0 0 0 0 3 3 10 13 19 23 23 26 16 16 16 13 16 16 16 13 16 13 10 10 10 6 10 10 13 13 16 19 16 13 13 13 10 10 6 6 6 10 10 13 13 13
0 0 0 0 0 0 0 0 0 10 16 13 19 13 16 13 16 13 16 10 10 10 10 13 13 10 3 6 6 6 6 13 13 13 13 13 16 13 10 10 10 10 10 6 6 10 10 6 6
0 0 0 0 0 0 3 0 3 13 13 13 10 10 13 13 10 10 10 6 3 3 6 10 6 3 3 3 3 3 3 6 10 10 10 10 6 10 10 10 10 10 6 3 3 6 3 3 3
0 0 0 0 0 3 0 0 3 10 13 10 10 6 10 6 3 6 6 6 3 3 3 3 3 3 0 3 6 3 6 6 6 10 10 10 10 10 6 6 6 3 3 3 3 3 3 3 3
0 0 0 0 0 0 0 0 3 3 6 6 6 10 3 3 3 3 6 6 10 6 6 6 3 3 3 3 6 6 6 3 3 3 6 6 10 10 10 6 6 3 3 3 3 3 3 3 3
0 0 0 0 0 0 0 0 0 3 3 6 6 6 10 3 6 10 13 13 10 10 6 10 6 3 3 3 3 6 6 0 0 0 3 6 10 10 10 10 6 3 3 3 3 3 3 3 3
0 0 0 0 0 0 0 0 0 0 3 3 6 6 10 6 13 16 16 13 16 10 10 13 3 3 3 3 3 3 3 0 3 0 0 0 6 10 10 6 6 3 3 3 3 3 3 3 3
0 0 0 0 0 0 0 0 0 0 0 0 3 6 6 13 13 13 10 10 13 13 13 10 3 3 3 3 3 6 3 3 3 6 0 0 0 3 3 6 6 6 6 6 6 3 3 3 3
0 0 0 0 0 0 0 0 0 0 0 0 3 6 6 6 10 10 6 6 6 6 6 6 3 3 3 3 3 3 3 3 0 3 0 0 0 0 0 3 3 3 3 6 6 6 3 3 3
0 0 0 0 0 0 0 0 0 0 0 0 3 3 3 6 3 6 10 6 3 6 6 3 3 6 3 3 3 3 3 3 3 3 0 0 0 0 0 0 3 0 0 0 3 3 3 3 3
0 0 0 0 0 0 0 0 0 0 0 0 3 3 6 3 6 10 10 10 6 10 6 3 3 3 3 3 3 3 3 3 3 3 0 0 0 0 0 0 3 0 0 0 0 0 0 3 3
0 0 0 0 0 0 0 0 0 3 3 3 3 3 0 3 6 6 10 10 6 6 6 0 0 0 3 3 3 3 0 3 3 3 0 0 0 0 0 0 3 3 0 0 0 0 0 0 0
0 0 0 0 0 0 0 0 0 3 3 10 6 3 0 0 3 6 10 10 6 6 6 6 6 3 3 3 3 3 3 0 3 3 0 0 0 0 0 0 3 3 0 0 0 0 0 0 0
0 0 0 0 0 0 0 0 0 0 3 3 3 6 0 0 3 3 6 6 6 6 6 6 3 3 3 3 3 3 3 0 3 3 0 0 0 0 0 3 0 0 0 0 0 0 0 0 0
0 0 0 0 0 0 0 0 0 0 0 3 0 0 0 0 0 3 3 3 3 3 3 3 3 3 3 3 3 3 0 0 3 0 0 0 0 0 0 0 0 0 0 0 0 0 0 0 0
0 0 0 0 0 0 0 0 0 0 0 0 0 0 0 0 0 0 3 3 0 0 0 0 0 0 0 0 0 0 0 0 0 0 0 0 0 0 0 0 0 0 0 0 0 0 0 0 0

GEFSSGP_con_cape1000_240.txt.gz
Probability
0 0 0 0 0 0 0 0 0 0 0 6 6 3 3 6 10 23 45 42 35 42 65 74 84 84 84 87 87 87 87 90 90 90 90 87 84 81 84 81 81 77 77 77 77 74 74 71 65
0 0 0 0 0 0 0 0 0 0 0 3 10 16 10 26 42 39 45 35 35 48 74 77 84 84 84 84 84 84 84 87 90 87 81 77 77 81 81 77 77 71 71 71 68 68 68 68 65
0 0 0 0 0 0 0 0 0 0 0 3 6 16 32 35 35 42 42 42 48 52 71 77 84 81 77 77 77 77 77 81 77 81 77 77 74 77 74 71 74 74 71 65 65 68 68 68 68
0 0 0 0 0 0 0 0 0 0 0 6 6 29 32 39 35 48 52 52 52 48 52 71 77 74 77 77 77 77 77 77 74 77 81 74 71 68 68 71 74 68 68 68 65 61 61 65 65
0 0 0 0 0 0 0 0 0 0 3 6 10 23 19 45 48 52 52 52 45 48 45 61 77 74 71 74 77 77 77 74 74 77 74 74 71 68 71 68 71 68 68 65 65 61 58 58 58
0 0 0 0 0 0 0 0 3 3 10 10 6 16 35 45 52 52 52 52 48 48 45 61 74 74 74 71 71 71 68 71 74 71 68 68 71 68 68 68 68 65 65 61 58 58 52 58 55
0 0 0 0 0 0 0 0 3 3 10 13 13 19 32 45 48 52 45 45 45 52 48 52 58 71 74 74 74 74 68 68 68 61 61 61 61 61 61 61 65 61 61 58 55 55 45 55 55
0 0 0 0 0 0 0 0 0 0 6 19 19 16 26 48 42 42 42 42 45 42 55 55 55 58 61 68 71 68 71 65 61 58 55 55 58 58 61 61 61 58 58 55 58 52 52 52 52
0 0 0 0 0 0 0 0 0 0 3 19 26 26 35 52 52 39 39 42 39 42 45 48 52 65 61 55 65 61 65 55 61 61 58 55 55 48 58 52 55 52 52 52 52 48 45 45 42
0 0 0 0 0 0 0 0 0 3 6 16 29 32 35 52 52 42 42 42 42 45 48 52 48 55 52 52 58 55 45 52 58 61 58 52 42 39 29 45 45 45 45 48 45 39 42 39 39
0 0 0 0 0 0 0 0 0 0 3 13 26 35 45 55 45 42 42 42 48 52 52 52 48 58 48 55 45 48 48 61 52 48 52 52 45 42 29 45 45 45 42 42 42 32 32 29 35
3 3 3 3 0 0 0 0 0 0 13 19 26 32 39 45 52 45 42 42 45 48 48 52 55 55 55 55 45 48 48 45 42 58 52 52 52 42 39 39 29 29 35 39 35 39 32 35 29
0 3 0 0 0 0 0 0 6 13 19 23 26 32 35 42 48 42 39 39 45 48 45 45 52 55 58 55 45 39 39 35 42 48 48 45 39 42 39 32 42 35 29 32 39 26 26 29 26
0 0 0 0 0 0 0 6 13 16 23 23 29 29 29 35 35 32 32 39 45 32 42 42 42 48 52 52 52 35 29 35 35 32 42 45 39 35 39 39 45 39 32 32 35 29 26 26 23
0 0 0 0 0 0 6 6 13 16 23 19 23 26 29 32 32 29 29 35 35 35 42 42 42 42 48 52 48 35 35 32 35 39 42 39 42 42 42 32 39 42 35 35 32 23 23 23 13
0 0 0 0 0 0 3 3 10 13 23 19 19 23 32 29 26 26 26 32 35 39 42 39 32 35 42 39 45 35 29 26 39 42 39 35 39 42 45 39 29 35 29 26 29 23 19 16 16
0 0 0 0 0 0 0 0 10 13 19 23 16 19 23 19 19 26 32 39 35 39 39 39 39 39 39 35 35 35 35 29 32 29 26 32 26 29 35 32 32 35 32 26 23 19 19 19 23
0 0 0 0 0 0 0 0 6 10 19 19 19 16 16 19 23 23 23 32 35 35 32 39 35 39 35 35 32 35 29 26 19 19 29 29 35 32 32 32 35 29 26 29 23 23 23 13 16
0 0 0 0 0 0 0 0 6 10 13 13 16 16 19 16 19 23 23 26 32 35 35 35 35 39 35 32 29 29 23 23 19 23 23 26 23 23 26 23 26 26 19 23 16 16 10 10 10
3 0 0 0 0 0 0 0 6 6 10 13 16 16 19 26 23 26 29 26 35 35 32 32 32 39 39 29 35 32 29 23 19 19 16 16 23 23 23 23 23 23 26 19 19 16 10 6 10
0 0 0 0 0 0 0 3 3 6 6 10 19 19 23 29 35 39 35 39 35 29 32 32 35 35 35 32 32 26 26 16 16 13 16 16 16 19 19 16 16 19 10 13 16 19 13 6 6
0 0 0 0 0 0 0 0 6 3 6 16 19 19 29 32 35 42 39 23 26 29 29 39 35 32 35 29 29 29 26 19 16 16 16 16 16 16 16 16 13 16 10 13 10 6 13 16 13
0 0 0 0 0 0 0 0 3 3 6 13 19 19 26 26 29 26 32 26 29 23 23 26 26 29 32 32 26 26 19 19 16 16 19 19 16 16 13 13 13 13 13 10 10 10 10 10 10
0 0 0 0 0 0 0 0 0 6 6 10 10 16 23 23 26 26 26 32 23 23 23 26 26 26 29 29 23 23 19 23 19 19 16 19 16 10 10 10 13 13 13 13 13 13 10 10 10
0 0 0 0 0 0 0 0 6 6 3 6 10 16 19 19 19 23 19 19 23 19 19 23 26 26 26 26 29 19 23 23 23 19 16 13 13 10 13 10 13 13 16 16 16 13 10 10 13
0 0 0 0 0 0 0 0 6 10 16 13 13 16 13 16 19 19 13 19 19 19 19 19 19 23 26 26 26 29 26 23 19 16 13 10 10 10 10 6 10 13 13 10 6 6 6 10 10
0 0 0 0 0 0 0 0 6 13 6 13 16 16 13 13 10 13 13 16 23 19 19 19 16 16 16 16 23 26 26 26 19 19 16 10 10 10 10 6 10 13 13 10 13 10 6 6 6
0 0 0 0 0 0 0 0 0 6 10 16 19 16 16 16 16 16 13 19 23 16 13 13 13 13 16 16 19 19 19 19 16 10 6 6 10 10 10 6 10 10 6 6 3 3 3 3 3
0 0 0 0 0 0 0 0 3 3 13 13 13 13 19 23 23 16 16 13 13 16 13 10 6 10 13 13 19 16 10 13 10 10 6 6 6 6 6 3 6 3 3 0 3 3 3 3 3
0 0 0 0 0 0 0 0 0 0 6 6 10 10 13 19 19 13 10 10 10 13 10 6 6 10 10 10 10 16 13 6 10 10 6 6 6 6 3 6 3 0 0 0 0 0 0 3 3

GEFSSGP_con_cape1000_246.txt.gz
Probability
0 0 3 6 6 3 0 0 0 0 0 3 3 6 19 32 26 45 42 39 52 58 71 84 84 84 84 81 81 81 81 81 84 77 77 74 77 77 84 84 84 87 81 74 68 65 61 58 61
0 0 3 3 3 0 0 0 0 0 3 3 3 13 26 19 26 39 42 45 52 65 68 74 84 81 81 81 77 77 81 84 74 77 81 74 77 77 84 81 77 71 68 68 68 65 65 65 68
0 0 0 0 0 0 0 0 0 0 0 0 6 10 19 16 26 45 42 39 55 61 71 77 81 81 77 77 74 77 77 74 71 68 71 71 68 71 74 74 71 71 68 61 58 58 58 61 52
0 0 0 0 0 0 0 0 0 0 3 3 3 16 16 23 26 39 39 45 55 58 65 71 74 74 71 71 74 74 81 74 71 71 74 74 68 71 68 61 65 65 65 61 58 52 52 45 55
0 0 0 0 0 0 0 0 0 0 0 0 13 13 23 35 29 35 39 45 45 55 68 71 74 74 71 71 65 68 71 65 61 68 71 68 68 68 61 61 65 65 58 55 55 55 55 61 55
0 0 0 0 0 0 0 0 0 3 0 3 10 16 23 35 35 35 42 42 45 55 61 68 74 74 71 71 68 68 68 65 68 68 71 68 68 68 61 61 58 58 55 52 42 48 55 61 58
0 0 0 0 0 0 0 0 0 0 6 6 6 10 29 32 39 35 42 45 45 55 55 61 68 74 71 74 71 68 65 68 68 68 61 65 68 55 55 52 55 52 52 52 45 48 48 45 45
0 0 0 0 0 0 0 0 0 3 6 0 3 10 32 39 35 32 35 42 45 48 55 42 55 58 58 71 74 74 65 68 68 61 61 61 61 55 52 52 55 48 48 52 48 48 48 45 45
0 0 0 0 0 3 3 0 0 3 3 0 6 19 29 35 32 32 39 42 39 42 42 48 48 58 48 45 61 68 65 68 71 65 61 58 52 45 61 48 58 48 48 45 42 48 48 52 52
0 0 0 0 0 3 0 0 0 0 3 6 10 23 29 39 35 39 35 35 48 42 42 45 45 52 45 45 55 68 58 65 58 58 65 65 68 65 55 61 61 58 55 48 48 55 52 42 39
0 0 0 0 0 3 0 0 0 0 0 10 19 23 35 39 42 45 42 39 42 39 45 48 48 58 58 55 52 58 65 68 65 68 71 71 71 65 61 58 58 58 58 55 58 48 39 35 39
0 0 0 0 0 0 0 0 0 0 3 16 13 23 29 39 39 45 42 45 48 55 52 45 52 58 61 65 58 68 65 68 65 68 68 68 61 65 61 65 58 58 55 52 48 45 35 35 29
0 3 0 0 0 0 0 3 0 3 10 19 26 32 32 39 35 45 48 45 48 55 52 48 52 58 65 68 65 58 68 61 61 68 61 58 61 58 58 55 52 52 52 52 42 35 26 26 26
0 0 0 0 0 3 3 0 0 3 16 13 23 29 32 35 32 42 48 48 45 45 48 52 48 58 61 61 61 61 55 61 58 52 58 61 55 55 58 52 48 48 48 39 35 32 32 29 29
0 0 0 0 0 3 0 0 0 6 6 10 23 23 32 32 32 39 45 42 45 45 48 55 52 58 55 55 52 48 48 52 58 58 52 55 52 55 48 45 52 52 42 42 42 42 39 32 23
0 0 0 0 0 3 0 0 0 3 6 10 16 16 32 26 29 35 39 39 42 42 48 55 39 45 58 52 52 48 48 52 48 55 55 48 52 48 42 39 45 42 45 42 42 39 29 29 26
0 0 0 0 0 0 0 0 6 6 6 6 13 16 26 26 35 39 39 42 42 45 48 45 45 48 55 48 45 45 48 48 39 45 52 42 42 39 45 42 45 45 45 39 32 32 32 26 29
0 0 0 0 0 0 0 3 3 6 3 6 16 16 29 35 35 39 42 39 45 45 55 52 42 39 45 42 45 52 45 42 39 39 39 42 48 42 39 35 45 39 39 35 29 29 29 26 26
0 0 0 0 0 0 0 3 3 6 3 6 6 16 23 32 35 39 42 39 42 45 45 48 42 48 42 42 35 45 42 42 35 29 26 42 45 39 32 29 35 29 32 29 26 29 26 26 23
0 0 0 0 0 0 0 0 3 3 10 10 13 13 16 32 32 42 39 39 39 42 45 42 42 48 48 48 48 42 39 35 29 32 29 32 35 39 19 26 23 26 26 26 29 29 19 19 19
0 0 0 0 0 0 0 0 3 3 6 10 10 10 10 19 42 39 32 32 32 39 42 35 45 48 48 48 45 42 42 32 29 29 26 29 19 19 26 23 19 19 19 23 23 26 16 13 16
0 0 0 0 0 0 0 0 6 10 10 13 10 6 10 16 26 35 32 32 35 32 35 42 45 45 45 45 45 39 32 26 29 23 23 26 16 19 16 13 16 19 19 16 19 13 13 13 13
0 0 0 0 0 0 0 0 0 10 6 10 10 6 10 19 26 32 35 32 35 35 39 35 39 39 35 42 42 42 35 29 26 26 26 32 26 26 13 16 29 19 19 16 10 13 13 16 16
3 0 0 0 0 0 0 0 0 3 6 10 10 10 16 23 23 26 32 35 35 35 35 35 39 35 35 35 32 39 35 23 23 29 23 29 32 26 19 23 32 26 23 19 19 19 16 13 16
0 0 0 0 0 0 0 0 6 6 6 3 13 13 16 16 23 29 29 32 32 39 35 29 32 35 32 32 32 32 35 32 23 26 19 26 23 23 29 16 26 26 26 19 23 26 23 16 16
0 0 0 0 0 0 0 3 6 0 6 6 10 13 16 16 23 23 29 32 32 32 32 19 29 32 26 26 26 32 32 26 23 29 23 23 26 26 19 26 23 19 16 16 23 19 13 13 13
0 0 0 0 0 0 0 3 3 3 6 3 10 6 16 19 19 19 23 29 32 35 29 23 23 23 23 23 23 29 29 23 23 26 32 32 32 19 16 16 13 13 13 13 13 16 16 10 6
0 0 0 0 3 0 0 0 6 6 3 6 10 13 19 26 19 23 26 26 26 29 29 29 19 16 16 23 26 16 23 23 23 19 29 29 26 16 10 10 6 10 10 10 16 19 13 6 3
0 0 0 0 0 0 0 0 6 13 13 10 10 16 16 23 23 26 29 26 29 26 23 19 16 19 16 16 13 23 16 16 19 23 16 19 19 10 6 13 6 6 6 6 6 10 6 3 3
0 0 0 3 0 0 0 0 3 10 6 10 16 13 16 26 26 23 23 23 23 23 26 13 16 13 10 10 16 19 19 13 19 16 16 16 13 10 6 6 3 6 6 6 3 0 0 0 0

GEFSSGP_con_cape1000_252.txt.gz
Probability
0 0 0 0 3 3 0 0 0 0 3 3 3 10 6 10 10 3 13 32 45 61 74 77 84 84 81 81 81 81 84 84 77 81 81 74 81 81 81 84 84 84 77 77 71 68 68 65 65
0 0 0 0 3 0 0 0 0 0 3 3 10 13 16 19 29 26 23 39 52 61 71 71 81 77 77 81 81 81 81 84 81 77 77 77 77 81 81 77 74 74 74 77 65 61 58 65 68
0 0 0 0 0 0 0 0 0 3 3 3 6 13 13 26 32 26 29 42 45 55 65 71 74 74 74 74 74 74 77 81 77 74 77 77 77 77 77 74 71 74 71 68 58 58 61 58 58
0 0 0 0 0 0 0 0 0 3 0 6 13 13 10 13 26 32 26 42 45 58 61 74 74 74 74 74 74 74 77 81 74 74 74 74 74 68 71 71 74 68 68 68 58 48 55 48 48
0 0 0 0 0 0 0 0 0 3 3 3 10 13 13 29 26 32 35 32 42 48 61 71 71 71 71 71 71 74 74 77 77 74 74 74 71 68 65 65 65 71 65 65 55 52 52 48 52
0 0 0 0 0 0 0 0 0 0 6 3 6 19 23 26 23 29 35 42 42 45 58 61 68 68 71 71 71 71 71 71 77 77 77 74 68 65 68 68 61 55 55 58 52 55 52 52 52
0 0 0 0 0 0 0 0 0 0 0 3 6 19 23 26 23 32 29 45 48 55 55 55 58 65 68 68 71 71 68 68 71 71 74 71 65 65 65 65 58 55 52 52 48 45 48 55 55
0 0 0 0 0 0 0 0 0 0 3 3 6 19 19 19 19 19 29 39 48 45 48 55 55 58 58 61 65 68 68 65 68 71 74 68 65 65 61 61 58 58 55 52 48 48 52 52 48
0 0 0 0 0 0 0 0 3 3 6 10 10 13 26 19 16 23 32 32 29 35 42 55 52 55 55 55 55 55 68 65 61 61 71 61 52 52 55 58 58 61 58 55 52 55 58 58 52
0 0 0 0 0 0 0 0 6 3 3 0 10 10 10 19 16 19 35 23 23 29 35 42 45 48 52 52 52 52 52 52 52 45 45 45 42 42 45 52 58 58 58 52 52 55 55 48 29
0 0 0 0 0 3 0 0 0 0 6 3 6 19 16 16 16 19 23 19 19 10 29 29 35 42 35 35 39 42 39 39 39 35 42 35 29 32 35 35 52 48 52 45 45 42 32 29 19
0 0 0 0 0 0 0 0 3 3 6 10 13 19 16 16 13 10 23 19 13 10 19 29 29 26 19 26 26 32 29 29 29 26 26 29 23 19 16 19 23 35 32 26 23 26 16 19 13
0 3 0 0 0 3 3 6 13 6 10 16 16 13 13 13 13 6 13 16 13 16 26 29 23 23 19 23 23 26 23 23 23 26 26 26 13 16 19 13 10 13 16 19 6 10 6 10 10
3 0 0 3 3 0 0 6 6 6 10 16 16 13 13 13 10 10 13 23 23 26 23 23 23 23 19 16 16 16 19 13 13 13 19 13 13 10 13 6 3 6 6 6 6 13 10 10 10
0 0 0 0 0 0 3 3 3 6 10 16 16 16 10 10 10 16 19 26 23 23 26 23 19 19 19 16 13 10 19 19 10 10 16 6 10 6 10 10 10 10 10 10 10 10 10 10 6
0 0 0 0 3 0 0 3 3 6 6 13 13 13 16 16 16 23 26 26 19 23 26 23 23 19 16 13 10 6 13 10 10 10 10 10 10 6 10 13 13 16 13 10 10 10 10 6 6
0 0 0 0 0 0 0 0 3 3 3 6 10 6 10 16 19 19 29 29 23 23 26 23 23 19 13 10 6 10 10 10 10 13 10 13 13 10 10 10 19 16 13 6 6 6 6 6 3
0 0 0 0 0 0 0 0 3 0 0 0 6 6 10 16 19 19 29 29 19 16 16 19 19 16 16 6 10 6 6 6 10 13 16 16 13 13 10 16 19 16 6 6 6 6 6 6 6
0 0 0 0 0 0 0 0 0 3 3 0 0 3 6 10 19 19 26 26 19 16 16 16 10 13 16 16 13 10 10 10 13 13 13 16 10 10 6 13 10 10 10 6 6 6 6 3 3
0 0 0 0 0 0 0 0 3 6 3 3 0 3 10 13 13 19 23 26 26 19 16 16 13 13 16 13 13 10 13 6 3 6 6 13 10 6 10 3 6 3 3 3 3 3 3 3 3
0 0 0 0 0 0 0 0 0 0 0 0 0 3 6 13 19 16 23 23 23 19 16 16 16 13 10 10 10 10 10 6 6 6 6 10 10 6 6 6 6 3 3 3 3 3 3 3 0
0 0 0 0 0 0 0 0 0 0 0 0 0 3 6 16 16 13 16 19 19 19 13 13 6 10 10 13 10 10 6 6 6 3 6 6 10 6 10 6 6 6 3 3 6 3 3 3 3
0 0 0 0 0 0 0 0 0 0 0 0 3 3 6 6 10 10 10 19 16 16 16 16 10 10 10 10 10 6 6 6 6 6 6 10 10 10 3 6 10 10 10 6 6 6 3 0 0
0 0 0 0 0 0 0 0 0 0 0 0 0 0 6 6 6 3 10 13 16 19 16 16 16 13 13 10 10 6 6 6 6 6 6 6 6 6 6 6 6 6 10 6 6 6 3 0 0
0 0 0 0 0 0 0 0 0 0 0 0 0 0 3 6 6 10 10 10 13 16 16 16 16 16 13 13 10 10 6 6 6 6 6 6 6 6 6 6 6 6 6 6 3 3 3 0 0
0 0 0 0 0 0 0 0 0 0 0 0 0 3 3 3 6 13 10 10 13 16 19 19 16 16 16 16 16 6 6 6 6 6 6 6 6 6 6 6 6 6 6 6 0 0 0 0 0
0 0 0 0 0 0 0 0 0 0 0 0 0 3 3 3 10 13 10 6 10 10 13 10 13 13 13 10 10 6 6 6 6 6 6 6 6 3 6 6 6 6 6 6 0 0 0 0 0
0 0 0 0 0 0 0 0 0 0 0 0 0 0 0 3 3 6 10 13 10 6 6 6 6 6 6 6 6 6 6 6 6 6 6 3 3 3 3 3 3 3 3 3 0 0 0 0 0
0 0 0 0 0 0 0 0 0 0 0 0 0 6 3 3 6 13 10 13 10 6 6 6 6 6 6 6 6 6 6 6 6 6 6 3 3 3 3 3 3 3 3 3 0 0 0 0 0
0 0 0 0 0 0 0 0 3 0 0 0 0 3 6 3 6 13 13 6 6 6 6 6 6 6 6 6 6 6 6 6 3 3 3 3 3 3 3 3 3 3 3 0 0 0 0 0 0

GEFSSGP_con_cape1000_258.txt.gz
Probability
0 0 0 0 0 0 0 0 0 0 0 6 6 6 6 13 3 0 3 23 32 48 58 77 84 87 84 81 84 84 84 81 81 77 74 74 74 77 84 84 84 84 77 74 71 71 68 68 71
0 0 0 0 0 0 0 0 0 0 0 10 10 13 16 16 16 16 19 32 42 55 58 61 81 84 84 84 84 84 84 84 81 77 77 77 77 77 81 81 77 71 71 71 68 65 61 65 65
0 0 0 0 0 0 0 0 0 0 0 3 6 6 16 23 26 23 19 39 39 42 52 61 71 77 81 81 81 81 81 81 81 71 71 71 77 77 77 77 71 71 68 68 55 58 58 58 58
0 0 0 0 0 0 0 0 0 3 3 0 6 6 13 13 35 32 42 45 48 45 55 61 74 74 74 81 81 81 81 81 81 74 74 71 71 68 68 68 71 71 65 65 55 55 52 55 52
0 0 0 0 0 0 0 0 0 3 0 3 6 6 16 13 29 39 42 45 39 48 45 61 71 71 71 71 74 81 77 81 81 77 74 68 68 68 61 61 61 61 61 55 55 58 55 52 52
0 0 0 0 0 0 0 0 0 0 0 3 3 13 19 29 32 29 35 35 35 39 42 58 74 71 68 68 65 68 71 74 81 74 74 74 71 68 65 65 58 61 61 61 58 55 52 55 52
0 0 0 0 0 0 0 0 0 0 3 3 3 13 19 26 23 23 23 23 26 32 35 48 55 61 71 68 65 65 65 74 77 77 71 65 65 65 65 58 58 58 58 58 48 48 48 52 52
0 0 0 0 0 0 0 0 0 0 3 6 10 10 13 16 23 26 23 23 26 29 32 39 45 45 52 48 61 61 65 65 71 68 61 65 61 61 61 55 55 55 55 58 52 48 52 52 52
0 0 0 0 0 0 0 0 0 3 0 0 3 13 16 23 26 26 29 29 26 32 35 42 42 42 45 45 45 48 61 65 55 52 55 55 48 48 52 55 55 52 52 48 48 48 48 45 45
0 0 0 0 0 0 0 0 0 3 0 0 6 13 19 23 29 29 23 26 23 26 23 35 39 39 39 45 45 45 45 39 39 42 45 45 42 42 48 52 52 55 55 48 48 48 48 48 42
0 0 0 0 0 0 0 0 0 3 3 0 6 16 19 29 23 29 26 16 19 19 19 26 32 35 32 32 32 29 32 32 32 32 32 26 29 32 39 32 35 45 45 48 48 45 42 42 29
0 0 0 0 3 0 0 0 0 3 3 3 6 16 19 19 19 19 16 16 13 16 19 23 29 32 26 19 23 19 19 16 23 23 23 19 19 19 16 19 26 23 32 39 35 26 26 23 13
0 0 0 0 0 0 0 0 0 3 0 6 10 13 19 19 16 16 13 13 10 10 16 23 23 26 16 13 13 16 16 16 16 16 16 16 13 13 6 6 13 23 26 29 26 26 19 13 13
0 0 0 0 0 0 0 3 3 6 3 3 6 13 10 13 16 16 13 13 10 10 16 23 16 23 13 13 10 13 13 10 10 10 10 10 13 10 6 6 6 13 13 13 16 16 16 13 13
0 0 0 0 0 0 3 3 3 6 6 6 13 16 13 13 16 16 10 6 3 3 6 13 13 13 13 13 6 6 3 3 6 10 10 16 10 3 3 6 6 6 6 10 13 13 10 13 10
0 0 0 0 0 0 0 0 3 6 6 10 13 13 13 10 10 10 6 6 6 6 3 6 10 13 13 10 10 6 3 3 3 0 3 13 3 3 3 3 3 3 6 6 13 13 13 10 6
0 0 0 0 0 0 0 0 3 3 6 3 3 6 6 10 10 6 6 3 6 3 3 6 3 3 3 3 0 3 0 6 6 3 0 3 3 3 3 3 0 0 3 6 6 6 6 6 6
0 0 0 0 0 0 3 3 3 3 0 0 3 6 6 6 3 10 6 10 10 10 10 3 0 0 3 0 0 0 3 3 3 3 0 0 3 6 3 3 0 3 3 6 6 6 6 3 3
0 0 0 0 0 3 3 3 3 3 0 0 0 0 3 0 3 10 10 10 10 13 6 3 0 0 0 0 0 3 3 3 3 3 3 0 0 0 0 0 0 0 0 0 0 3 3 3 3
0 0 0 0 0 3 3 3 3 3 3 0 0 3 3 6 6 13 13 10 13 13 10 3 0 0 6 6 0 0 0 3 3 3 3 3 0 0 0 0 0 0 0 0 0 3 3 3 3
0 0 0 0 0 0 3 3 3 3 0 3 3 0 6 6 6 13 13 6 13 13 6 3 6 6 6 6 3 3 3 3 3 3 3 3 6 3 0 0 0 0 0 0 0 0 3 3 3
0 0 0 0 0 0 0 0 0 0 0 0 0 0 0 0 10 13 16 13 13 13 6 3 6 6 10 3 3 3 3 3 3 3 3 3 3 3 0 3 0 0 0 0 0 0 0 0 0
0 0 0 0 0 0 0 0 0 0 0 0 0 0 0 3 6 6 6 13 10 10 10 6 6 6 6 6 3 3 3 3 3 3 3 3 3 0 3 3 0 0 0 0 0 0 0 0 0
0 0 0 0 0 0 0 0 0 0 0 0 0 0 0 0 10 10 10 10 10 10 10 6 6 6 6 6 6 3 3 3 3 3 3 3 3 0 3 3 0 0 0 0 0 0 0 0 0
0 0 0 0 0 0 0 0 0 0 0 0 0 0 0 0 10 10 10 10 10 13 10 6 3 6 6 6 6 6 3 3 3 3 3 3 3 3 6 6 3 0 0 0 0 0 0 0 0
0 0 0 0 0 0 0 0 0 0 0 0 0 0 3 3 6 10 6 10 10 10 13 6 6 3 6 6 6 6 6 3 3 3 3 3 3 6 6 6 6 6 0 0 0 0 0 0 0
0 0 0 0 0 0 0 0 0 0 0 0 0 0 0 3 3 6 6 3 6 6 10 10 6 6 6 6 6 6 6 6 6 3 3 6 3 3 3 3 3 3 3 0 0 0 0 0 0
0 0 0 0 0 0 0 0 0 0 0 0 0 0 0 0 3 3 3 0 6 6 3 6 10 10 13 10 10 6 6 6 6 6 6 6 3 3 3 3 3 3 3 3 0 0 0 0 0
0 0 0 0 0 0 0 0 0 0 0 0 0 0 0 0 3 6 6 3 0 3 3 3 10 13 13 10 10 6 6 6 6 6 6 3 3 3 3 3 3 3 3 3 3 0 0 0 0
0 0 0 0 0 0 0 0 0 0 0 0 0 0 0 0 3 3 0 0 0 6 6 6 10 6 6 6 6 6 6 6 6 6 6 3 3 3 3 3 3 3 3 3 3 3 0 0 0

GEFSSGP_con_cape1000_264.txt.gz
Probability
0 0 0 0 3 0 0 0 0 0 0 3 3 3 0 3 0 10 32 29 29 42 61 71 77 77 84 84 81 81 77 71 71 71 77 74 77 74 74 77 81 81 84 84 81 74 81 77 77
0 0 0 3 0 0 0 0 0 0 0 0 3 3 3 3 16 32 32 35 35 45 65 71 71 84 77 81 81 81 81 77 74 74 71 71 77 77 77 77 77 68 71 71 74 77 71 71 71
0 0 3 0 0 0 0 0 0 3 0 3 6 6 3 16 23 26 42 35 45 45 58 74 74 71 74 71 77 77 71 71 68 71 68 68 68 74 77 74 71 71 65 61 65 61 68 68 68
0 0 0 0 0 0 0 0 0 3 0 3 6 10 23 35 35 45 52 42 48 48 45 65 74 68 68 71 71 74 71 71 68 71 68 65 68 65 71 71 74 61 61 61 65 65 58 58 58
0 0 0 0 0 0 0 0 3 3 0 3 6 10 29 42 48 52 52 45 45 45 45 61 71 71 65 68 71 71 71 77 71 61 65 68 68 65 65 68 65 61 58 58 52 58 58 58 55
0 0 0 0 0 0 0 0 0 0 3 10 10 13 32 48 48 55 48 48 45 45 42 65 68 68 65 68 68 71 71 71 68 68 65 61 61 65 65 68 65 58 52 52 42 39 52 52 48
0 0 0 0 0 0 0 0 0 0 3 6 10 16 32 45 45 58 52 52 45 39 39 55 55 65 61 58 61 65 65 68 65 61 61 65 61 61 61 58 55 52 48 48 45 45 48 45 48
0 0 0 0 0 0 3 3 3 3 3 6 13 16 26 45 48 48 45 42 45 42 39 48 39 45 48 48 58 61 58 58 61 61 58 61 61 58 58 55 55 52 45 45 39 42 42 48 52
0 0 0 0 0 0 3 6 3 3 6 13 19 23 29 42 45 42 42 42 48 45 45 45 42 45 42 32 48 48 58 58 58 48 52 55 52 42 45 35 48 45 48 42 45 45 42 45 45
0 0 0 0 0 0 3 6 3 6 6 10 13 23 39 42 45 48 48 52 45 42 39 45 39 42 35 35 39 45 39 45 48 48 48 55 48 48 35 39 42 48 52 52 48 45 42 42 39
0 0 0 0 0 0 6 6 3 3 6 6 13 29 35 42 42 42 48 52 45 35 35 32 39 35 35 35 39 42 32 39 42 39 52 58 52 45 45 48 48 58 42 42 45 48 42 42 35
0 0 0 0 3 3 10 6 3 3 6 6 16 26 39 45 42 42 48 42 39 35 32 29 32 35 39 35 35 35 35 35 35 39 45 52 42 48 48 52 42 52 48 45 39 45 35 35 29
0 0 0 0 3 3 6 10 3 0 3 10 13 32 45 42 35 35 39 39 35 35 35 32 32 39 42 42 39 32 35 39 35 42 45 48 48 48 45 48 48 39 42 45 39 26 35 35 32
0 0 0 0 6 6 10 3 0 0 3 6 10 29 39 42 39 39 39 45 45 42 42 39 39 42 42 42 39 35 35 42 39 39 45 48 45 45 45 42 45 42 42 42 35 32 45 45 35
3 3 3 6 10 3 3 0 0 0 3 10 13 23 35 35 35 39 39 42 45 45 42 42 42 42 42 42 39 35 35 42 29 32 42 42 39 35 39 42 42 45 39 45 42 39 42 42 32
0 3 3 3 3 0 3 3 3 3 3 10 16 23 32 39 32 39 35 35 42 42 42 39 32 35 42 42 45 45 35 35 32 39 35 39 32 35 42 45 39 42 35 32 45 35 39 29 32
0 0 0 3 3 3 6 6 6 10 10 16 13 23 23 23 35 32 32 39 35 42 39 42 39 32 39 39 42 42 42 42 32 32 32 39 42 39 39 42 45 42 35 29 29 35 39 35 32
0 0 0 0 3 3 6 6 13 10 10 16 16 10 16 16 26 23 35 32 35 35 42 42 39 42 39 39 42 45 42 35 35 39 39 39 42 39 42 35 39 42 42 42 35 32 35 23 26
0 0 0 0 0 6 3 10 16 13 13 13 16 13 13 23 16 26 32 35 39 39 39 45 39 42 42 32 42 39 32 35 35 32 26 32 29 32 35 29 42 39 39 42 32 32 29 23 13
0 0 0 3 3 6 6 6 6 13 10 10 13 13 23 29 29 29 26 29 35 42 42 45 39 42 42 39 39 39 32 26 23 23 29 29 32 29 26 32 26 32 42 35 35 35 23 16 10
0 0 0 3 3 0 3 6 3 6 6 6 10 13 16 26 26 29 29 26 32 35 35 35 42 45 45 45 35 29 32 29 23 23 32 29 26 26 29 23 23 23 23 29 29 32 19 16 10
0 0 0 3 0 0 0 0 0 3 3 3 6 16 16 16 23 19 26 29 26 32 32 39 42 45 42 39 35 32 32 23 29 32 26 23 19 16 16 23 19 19 23 26 26 23 23 23 13
0 0 0 0 0 0 0 0 0 3 6 10 6 6 13 13 19 23 23 26 29 29 29 32 32 35 42 39 39 39 32 23 26 29 32 26 19 16 23 23 23 23 23 23 19 23 23 23 19
3 3 0 0 0 0 0 0 0 0 10 6 6 10 19 16 16 19 23 23 23 23 26 32 32 35 32 35 32 35 32 29 26 26 26 26 23 16 19 23 19 23 19 16 16 19 16 23 19
3 3 6 0 0 0 0 0 3 6 6 6 6 13 19 16 19 19 19 16 19 16 19 19 19 23 23 23 32 29 26 32 32 23 19 19 16 19 16 13 16 16 16 13 13 23 16 13 13
0 0 0 0 0 0 0 0 3 6 6 10 13 13 6 10 16 19 19 19 23 19 19 23 16 26 19 19 23 23 19 16 19 26 16 10 10 6 10 16 16 13 6 6 13 13 10 10 10
0 0 0 0 0 0 0 0 3 6 10 10 13 13 13 10 13 16 16 19 19 16 16 16 16 19 16 16 19 23 19 16 16 16 16 10 13 6 10 10 10 10 6 6 10 16 10 10 10
0 0 0 0 0 0 0 0 3 10 13 13 16 13 10 10 6 10 13 13 16 16 16 16 19 19 19 16 16 13 16 16 16 10 10 10 10 10 10 10 10 10 6 10 10 10 6 6 6
0 0 0 0 0 0 0 0 0 6 13 13 10 10 10 10 6 13 16 16 13 16 16 16 16 19 19 19 19 16 19 19 19 16 13 13 13 13 10 10 13 10 10 10 10 6 6 6 6
0 0 0 0 0 0 0 0 10 13 10 13 13 10 10 13 10 13 16 16 16 16 16 16 16 19 19 19 19 16 16 16 16 13 13 13 13 13 13 13 10 10 6 10 6 6 6 6 6